EW6603 Weather Reports


Display with metric or nautical units.
time (UTC)temp
F
wind
direction
speed
MPH
gust
MPH
rain 1hr
in
rain 24hr
in
rain mn
in
humidity
%
barometer
mb
20260510202928 85 61 0.0 6.0 0.00 0.00 0.00 38 1011.1
20260510202816 85 324 0.0 6.0 0.00 0.00 0.00 39 1011.2
20260510202723 85 270 0.0 6.0 0.00 0.00 0.00 39 1011.1
20260510202633 85 294 0.0 6.0 0.00 0.00 0.00 38 1011.2
20260510202538 85 41 1.0 6.0 0.00 0.00 0.00 39 1011.2
20260510202431 85 330 0.0 3.0 0.00 0.00 0.00 39 1011.2
20260510202322 85 38 0.0 1.0 0.00 0.00 0.00 38 1011.2
20260510202210 85 61 0.0 1.0 0.00 0.00 0.00 38 1011.2
20260510202114 85 62 0.0 1.0 0.00 0.00 0.00 42 1011.2
20260510202015 85 104 0.0 1.0 0.00 0.00 0.00 39 1011.2
20260510201917 84 59 0.0 1.0 0.00 0.00 0.00 41 1011.2
20260510201844 84 355 0.0 1.0 0.00 0.00 0.00 40 1011.2
20260510201728 84 315 0.0 2.0 0.00 0.00 0.00 41 1011.3
20260510201615 84 294 0.0 2.0 0.00 0.00 0.00 40 1011.3
20260510201528 84 312 0.0 2.0 0.00 0.00 0.00 40 1011.3
20260510201515 83 305 0.0 2.0 0.00 0.00 0.00 40 1010.9
20260510201415 84 103 0.0 3.0 0.00 0.00 0.00 45 1011.4
20260510201321 84 336 0.0 3.0 0.00 0.00 0.00 42 1011.4
20260510201211 84 304 0.0 3.0 0.00 0.00 0.00 40 1011.3
20260510201137 83 327 0.0 3.0 0.00 0.00 0.00 43 1011.3
20260510201029 83 213 0.0 3.0 0.00 0.00 0.00 40 1011.3
20260510200915 83 40 0.0 3.0 0.00 0.00 0.00 42 1011.3
20260510200822 83 348 0.0 3.0 0.00 0.00 0.00 41 1011.3
20260510200728 83 17 0.0 3.0 0.00 0.00 0.00 40 1011.4
20260510200646 83 336 0.0 3.0 0.00 0.00 0.00 41 1011.4
20260510200511 83 15 0.0 0.0 0.00 0.00 0.00 40 1011.4
20260510200417 83 41 0.0 0.0 0.00 0.00 0.00 41 1011.4
20260510200324 83 21 0.0 0.0 0.00 0.00 0.00 41 1011.4
20260510200256 83 15 0.0 0.0 0.00 0.00 0.00 43 1011.4
20260510200117 83 195 0.0 0.0 0.00 0.00 0.00 47 1011.4
20260510200057 82 195 0.0 0.0 0.00 0.00 0.00 47 1011.0
20260510200023 83 198 0.0 0.0 0.00 0.00 0.00 46 1011.4
20260510195926 83 205 0.0 0.0 0.00 0.00 0.00 43 1011.4
20260510195813 83 205 0.0 0.0 0.00 0.00 0.00 41 1011.4
20260510195726 83 205 0.0 0.0 0.00 0.00 0.00 44 1011.4
20260510195612 83 155 0.0 0.0 0.00 0.00 0.00 40 1011.4
20260510195538 83 36 0.0 0.0 0.00 0.00 0.00 40 1011.4
20260510195434 83 13 0.0 0.0 0.00 0.00 0.00 39 1011.4
20260510195313 83 313 0.0 0.0 0.00 0.00 0.00 39 1011.4
20260510195246 83 311 0.0 0.0 0.00 0.00 0.00 39 1011.4
20260510195132 83 281 0.0 0.0 0.00 0.00 0.00 40 1011.4
20260510195022 83 296 0.0 0.0 0.00 0.00 0.00 39 1011.4
20260510194928 83 289 0.0 0.0 0.00 0.00 0.00 39 1011.5
20260510194819 83 355 0.0 0.0 0.00 0.00 0.00 39 1011.5
20260510194725 83 215 0.0 0.0 0.00 0.00 0.00 43 1011.5
20260510194637 83 169 0.0 0.0 0.00 0.00 0.00 43 1011.6
20260510194604 82 169 0.0 0.0 0.00 0.00 0.00 42 1011.1
20260510194515 83 180 0.0 0.0 0.00 0.00 0.00 42 1011.5
20260510194422 83 207 0.0 0.0 0.00 0.00 0.00 39 1011.5
20260510194328 83 174 0.0 0.0 0.00 0.00 0.00 39 1011.5
20260510194223 83 59 0.0 0.0 0.00 0.00 0.00 41 1011.5
20260510194130 83 305 0.0 0.0 0.00 0.00 0.00 44 1011.6
20260510194022 83 161 0.0 0.0 0.00 0.00 0.00 40 1011.5
20260510193935 83 107 0.0 0.0 0.00 0.00 0.00 41 1011.6
20260510193822 83 59 0.0 0.0 0.00 0.00 0.00 42 1011.6
20260510193724 83 186 0.0 0.0 0.00 0.00 0.00 41 1011.6
20260510193631 83 106 0.0 0.0 0.00 0.00 0.00 40 1011.7
20260510193526 83 136 0.0 0.0 0.00 0.00 0.00 38 1011.7
20260510193433 83 115 0.0 0.0 0.00 0.00 0.00 40 1011.6
20260510193318 83 135 0.0 0.0 0.00 0.00 0.00 39 1011.6
20260510193223 83 129 0.0 0.0 0.00 0.00 0.00 39 1011.7
20260510193137 83 128 0.0 1.0 0.00 0.00 0.00 40 1011.7
20260510193056 83 221 0.0 1.0 0.00 0.00 0.00 40 1011.3
20260510193021 83 325 0.0 1.0 0.00 0.00 0.00 43 1011.7
20260510192912 83 325 0.0 1.0 0.00 0.00 0.00 44 1011.7
20260510192845 83 325 0.0 1.0 0.00 0.00 0.00 40 1011.7
20260510192710 83 134 0.0 1.0 0.00 0.00 0.00 48 1011.7
20260510192613 83 267 0.0 1.0 0.00 0.00 0.00 41 1011.7
20260510192520 83 355 0.0 1.0 0.00 0.00 0.00 39 1011.7
20260510192434 83 63 0.0 1.0 0.00 0.00 0.00 39 1011.7
20260510192324 83 15 0.0 1.0 0.00 0.00 0.00 41 1011.8
20260510192230 83 307 0.0 0.0 0.00 0.00 0.00 39 1011.8
20260510192116 83 309 0.0 0.0 0.00 0.00 0.00 39 1011.8
20260510192022 83 74 0.0 0.0 0.00 0.00 0.00 41 1011.7
20260510191935 83 61 0.0 0.0 0.00 0.00 0.00 39 1011.8
20260510191821 83 36 0.0 6.0 0.00 0.00 0.00 39 1011.8
20260510191712 83 53 0.0 6.0 0.00 0.00 0.00 41 1011.8
20260510191618 83 59 0.0 6.0 0.00 0.00 0.00 39 1011.8
20260510191554 83 53 0.0 6.0 0.00 0.00 0.00 42 1011.4
20260510191524 83 38 0.0 6.0 0.00 0.00 0.00 42 1011.8
20260510191410 83 23 0.0 6.0 0.00 0.00 0.00 38 1011.8
20260510191317 83 22 0.0 6.0 0.00 0.00 0.00 38 1011.8
20260510191234 83 360 0.0 6.0 0.00 0.00 0.00 38 1011.8
20260510191120 83 13 0.0 6.0 0.00 0.00 0.00 38 1011.8
20260510191027 83 50 0.0 6.0 0.00 0.00 0.00 38 1011.8
20260510190910 83 83 0.0 1.0 0.00 0.00 0.00 39 1011.9
20260510190817 83 5 0.0 1.0 0.00 0.00 0.00 38 1011.9
20260510190731 83 312 0.0 1.0 0.00 0.00 0.00 38 1011.9
20260510190621 83 90 0.0 1.0 0.00 0.00 0.00 38 1011.9
20260510190527 83 323 0.0 1.0 0.00 0.00 0.00 37 1011.8
20260510190433 83 5 0.0 1.0 0.00 0.00 0.00 37 1011.9
20260510190345 83 275 0.0 1.0 0.00 0.00 0.00 37 1011.9
20260510190243 83 117 0.0 1.0 0.00 0.00 0.00 38 1012.0
20260510190155 83 55 0.0 1.0 0.00 0.00 0.00 38 1012.0
20260510190128 83 43 0.0 1.0 0.00 0.00 0.00 38 1012.0
20260510190020 83 17 0.0 1.0 0.00 0.00 0.00 40 1012.0
20260510185837 83 48 0.0 1.0 0.00 0.00 0.00 38 1012.1
20260510185720 83 33 0.0 1.0 0.00 0.00 0.00 40 1012.1
20260510185615 82 24 0.0 1.0 0.00 0.00 0.00 39 1012.0
20260510185522 82 96 0.0 1.0 0.00 0.00 0.00 39 1012.1
20260510185434 82 104 0.0 1.0 0.00 0.00 0.00 38 1012.0
20260510185314 82 207 0.0 0.0 0.00 0.00 0.00 40 1012.0
20260510185231 82 288 0.0 0.0 0.00 0.00 0.00 38 1012.0
20260510185136 82 94 0.0 0.0 0.00 0.00 0.00 38 1012.0
20260510185045 82 67 0.0 0.0 0.00 0.00 0.00 37 1012.0
20260510184909 83 18 0.0 0.0 0.00 0.00 0.00 39 1012.1
20260510184842 83 291 0.0 0.0 0.00 0.00 0.00 41 1012.1
20260510184728 83 61 0.0 0.0 0.00 0.00 0.00 38 1012.0
20260510184656 82 69 0.0 0.0 0.00 0.00 0.00 38 1011.7
20260510184635 83 42 0.0 0.0 0.00 0.00 0.00 39 1012.0
20260510184530 83 74 0.0 0.0 0.00 0.00 0.00 37 1012.1
20260510184416 83 88 0.0 0.0 0.00 0.00 0.00 37 1012.1
20260510184322 83 38 0.0 0.0 0.00 0.00 0.00 36 1012.1
20260510184235 83 46 0.0 0.0 0.00 0.00 0.00 37 1012.1
20260510184121 83 69 0.0 0.0 0.00 0.00 0.00 36 1012.1
20260510184021 84 34 0.0 2.0 0.00 0.00 0.00 37 1012.1
20260510183922 84 70 0.0 2.0 0.00 0.00 0.00 36 1012.2
20260510183813 84 15 0.0 2.0 0.00 0.00 0.00 36 1012.2
20260510183726 84 332 0.0 2.0 0.00 0.00 0.00 36 1012.2
20260510183613 85 49 0.0 2.0 0.00 0.00 0.00 36 1012.2
20260510183539 85 300 0.0 2.0 0.00 0.00 0.00 36 1012.2
20260510183431 85 314 0.0 2.0 0.00 0.00 0.00 36 1012.2
20260510183321 85 195 0.0 2.0 0.00 0.00 0.00 35 1012.2
20260510183247 85 43 0.0 6.0 0.00 0.00 0.00 37 1012.2
20260510183139 85 5 0.0 6.0 0.00 0.00 0.00 37 1012.1
20260510183116 85 11 0.0 6.0 0.00 0.00 0.00 37 1011.8
20260510183024 85 46 0.0 6.0 0.00 0.00 0.00 35 1012.2
20260510182910 85 139 0.0 6.0 0.00 0.00 0.00 39 1012.1
20260510182817 85 26 0.0 6.0 0.00 0.00 0.00 39 1012.1
20260510182722 84 355 0.0 6.0 0.00 0.00 0.00 37 1012.1
20260510182612 84 46 0.0 6.0 0.00 0.00 0.00 38 1012.1
20260510182525 84 317 1.0 6.0 0.00 0.00 0.00 37 1012.1
20260510182411 84 10 1.0 6.0 0.00 0.00 0.00 39 1012.0
20260510182318 84 19 0.0 7.0 0.00 0.00 0.00 36 1012.0
20260510182224 84 328 0.0 3.0 0.00 0.00 0.00 37 1012.1
20260510182142 84 53 0.0 3.0 0.00 0.00 0.00 39 1012.1
20260510182025 84 38 0.0 3.0 0.00 0.00 0.00 36 1012.2
20260510181911 84 297 0.0 3.0 0.00 0.00 0.00 36 1012.2
20260510181838 84 55 0.0 4.0 0.00 0.00 0.00 39 1012.2
20260510181730 84 17 0.0 4.0 0.00 0.00 0.00 39 1012.3
20260510181617 84 49 0.0 4.0 0.00 0.00 0.00 36 1012.3
20260510181604 83 58 0.0 4.0 0.00 0.00 0.00 36 1011.9
20260510181527 84 64 0.0 4.0 0.00 0.00 0.00 37 1012.2
20260510181500 84 126 0.0 4.0 0.00 0.00 0.00 37 1012.3
20260510181312 84 56 0.0 5.0 0.00 0.00 0.00 37 1012.3
20260510181219 84 134 0.0 5.0 0.00 0.00 0.00 37 1012.3
20260510181126 83 55 1.0 5.0 0.00 0.00 0.00 36 1012.2
20260510181032 83 67 1.0 5.0 0.00 0.00 0.00 37 1012.3
20260510180924 83 71 0.0 5.0 0.00 0.00 0.00 38 1012.3
20260510180846 83 333 0.0 5.0 0.00 0.00 0.00 40 1012.4
20260510180759 83 84 0.0 5.0 0.00 0.00 0.00 38 1012.4
20260510180614 83 302 1.0 5.0 0.00 0.00 0.00 39 1012.5
20260510180546 83 313 1.0 5.0 0.00 0.00 0.00 36 1012.5
20260510180432 84 18 0.0 0.0 0.00 0.00 0.00 37 1012.5
20260510180345 84 80 0.0 0.0 0.00 0.00 0.00 38 1012.5
20260510180210 84 55 0.0 0.0 0.00 0.00 0.00 36 1012.4
20260510180120 84 328 0.0 0.0 0.00 0.00 0.00 36 1012.4
20260510180052 84 324 0.0 0.0 0.00 0.00 0.00 35 1012.1
20260510180026 84 324 0.0 0.0 0.00 0.00 0.00 35 1012.4
20260510175913 84 232 0.0 0.0 0.00 0.00 0.00 38 1012.4
20260510175820 84 348 0.0 0.0 0.00 0.00 0.00 37 1012.4
20260510175733 84 30 0.0 0.0 0.00 0.00 0.00 39 1012.5
20260510175620 84 59 0.0 1.0 0.00 0.00 0.00 38 1012.5
20260510175530 84 31 0.0 1.0 0.00 0.00 0.00 38 1012.5
20260510175416 84 35 0.0 1.0 0.00 0.00 0.00 37 1012.5
20260510175329 84 298 0.0 1.0 0.00 0.00 0.00 35 1012.5
20260510175235 84 250 0.0 1.0 0.00 0.00 0.00 36 1012.5
20260510175120 84 253 0.0 1.0 0.00 0.00 0.00 36 1012.5
20260510175026 84 262 0.0 1.0 0.00 0.00 0.00 36 1012.6
20260510174916 84 5 0.0 1.0 0.00 0.00 0.00 39 1012.6
20260510174829 84 169 0.0 1.0 0.00 0.00 0.00 37 1012.6
20260510174715 84 16 0.0 1.0 0.00 0.00 0.00 37 1012.6
20260510174621 84 308 0.0 1.0 0.00 0.00 0.00 38 1012.6
20260510174550 83 323 0.0 1.0 0.00 0.00 0.00 38 1012.2
20260510174527 84 278 0.0 5.0 0.00 0.00 0.00 39 1012.5
20260510174440 83 263 0.0 8.0 0.00 0.00 0.00 38 1012.5
20260510174330 83 267 0.0 9.0 0.00 0.00 0.00 37 1012.5
20260510174212 83 126 0.0 9.0 0.00 0.00 0.00 37 1012.5
20260510174135 83 321 0.0 9.0 0.00 0.00 0.00 37 1012.5
20260510174010 83 306 0.0 9.0 0.00 0.00 0.00 37 1012.5
20260510173923 83 310 0.0 9.0 0.00 0.00 0.00 36 1012.5
20260510173822 83 311 1.0 9.0 0.00 0.00 0.00 41 1012.5
20260510173712 83 21 2.0 9.0 0.00 0.00 0.00 37 1012.5
20260510173642 83 328 2.0 9.0 0.00 0.00 0.00 38 1012.5
20260510173523 83 294 1.0 9.0 0.00 0.00 0.00 39 1012.5
20260510173409 83 33 0.0 2.0 0.00 0.00 0.00 40 1012.6
20260510173315 83 257 0.0 2.0 0.00 0.00 0.00 37 1012.6
20260510173222 83 271 0.0 2.0 0.00 0.00 0.00 41 1012.6
20260510173112 83 40 0.0 1.0 0.00 0.00 0.00 40 1012.6
20260510173025 83 290 0.0 0.0 0.00 0.00 0.00 40 1012.6
20260510173005 82 69 0.0 3.0 0.00 0.00 0.00 39 1012.3
20260510172911 83 251 0.0 3.0 0.00 0.00 0.00 37 1012.7
20260510172817 83 317 0.0 3.0 0.00 0.00 0.00 38 1012.7
20260510172751 83 315 0.0 3.0 0.00 0.00 0.00 37 1012.7
20260510172621 83 290 0.0 3.0 0.00 0.00 0.00 36 1012.7
20260510172527 83 40 0.0 3.0 0.00 0.00 0.00 36 1012.7
20260510172434 83 121 0.0 3.0 0.00 0.00 0.00 39 1012.9
20260510172327 82 77 0.0 3.0 0.00 0.00 0.00 36 1012.9
20260510172232 83 25 0.0 7.0 0.00 0.00 0.00 37 1012.9
20260510172118 83 18 0.0 7.0 0.00 0.00 0.00 36 1012.9
20260510172044 83 96 0.0 7.0 0.00 0.00 0.00 39 1012.9
20260510171914 83 89 0.0 7.0 0.00 0.00 0.00 40 1013.0
20260510171826 83 281 0.0 7.0 0.00 0.00 0.00 38 1013.0
20260510171733 83 105 0.0 7.0 0.00 0.00 0.00 38 1013.0
20260510171619 83 64 1.0 7.0 0.00 0.00 0.00 39 1013.0
20260510171532 83 77 2.0 7.0 0.00 0.00 0.00 37 1012.9
20260510171501 82 52 1.0 7.0 0.00 0.00 0.00 37 1012.6
20260510171417 83 55 1.0 6.0 0.00 0.00 0.00 37 1012.9
20260510171328 83 68 0.0 3.0 0.00 0.00 0.00 36 1013.0
20260510171213 83 37 0.0 0.0 0.00 0.00 0.00 39 1013.0
20260510171146 83 146 0.0 0.0 0.00 0.00 0.00 38 1013.0
20260510171032 83 48 0.0 5.0 0.00 0.00 0.00 38 1013.0
20260510170918 83 223 0.0 5.0 0.00 0.00 0.00 41 1013.0
20260510170831 83 355 0.0 5.0 0.00 0.00 0.00 37 1013.0
20260510170722 83 226 0.0 5.0 0.00 0.00 0.00 37 1013.1
20260510170628 83 305 0.0 5.0 0.00 0.00 0.00 37 1013.1
20260510170534 83 36 0.0 5.0 0.00 0.00 0.00 39 1013.2
20260510170426 83 188 0.0 5.0 0.00 0.00 0.00 38 1013.2
20260510170332 83 151 1.0 5.0 0.00 0.00 0.00 38 1013.1
20260510170219 83 14 1.0 5.0 0.00 0.00 0.00 38 1013.1
20260510170109 83 346 1.0 5.0 0.00 0.00 0.00 38 1013.1
20260510170050 82 360 0.0 5.0 0.00 0.00 0.00 38 1012.8
20260510170015 83 276 1.0 5.0 0.00 0.00 0.00 40 1013.1
20260510165948 83 273 0.0 0.0 0.00 0.00 0.00 40 1013.1
20260510165827 83 296 0.0 2.0 0.00 0.00 0.00 41 1013.1
20260510165711 82 52 0.0 2.0 0.00 0.00 0.00 39 1013.1
20260510165617 82 51 0.0 2.0 0.00 0.00 0.00 43 1013.1
20260510165534 82 57 0.0 2.0 0.00 0.00 0.00 39 1013.1
20260510165413 82 54 0.0 6.0 0.00 0.00 0.00 39 1013.2
20260510165346 82 41 0.0 6.0 0.00 0.00 0.00 39 1013.2
20260510165212 82 62 0.0 9.0 0.00 0.00 0.00 44 1013.2
20260510165145 82 306 0.0 9.0 0.00 0.00 0.00 39 1013.2
20260510165010 82 312 0.0 9.0 0.00 0.00 0.00 40 1013.2
20260510164920 82 298 0.0 9.0 0.00 0.00 0.00 40 1013.2
20260510164826 82 340 0.0 9.0 0.00 0.00 0.00 39 1013.2
20260510164736 82 10 1.0 9.0 0.00 0.00 0.00 39 1013.2
20260510164614 82 111 1.0 9.0 0.00 0.00 0.00 40 1013.2
20260510164612 81 65 1.0 9.0 0.00 0.00 0.00 40 1012.9
20260510164540 82 297 1.0 9.0 0.00 0.00 0.00 39 1013.2
20260510164425 82 350 1.0 9.0 0.00 0.00 0.00 40 1013.2
20260510164315 82 98 0.0 0.0 0.00 0.00 0.00 44 1013.2
20260510164228 82 117 0.0 0.0 0.00 0.00 0.00 44 1013.2
20260510164114 82 46 0.0 0.0 0.00 0.00 0.00 43 1013.2
20260510164020 82 343 0.0 0.0 0.00 0.00 0.00 41 1013.2
20260510163926 81 65 0.0 0.0 0.00 0.00 0.00 41 1013.1
20260510163817 81 38 0.0 0.0 0.00 0.00 0.00 42 1013.2
20260510163730 81 26 0.0 0.0 0.00 0.00 0.00 41 1013.2
20260510163617 81 299 0.0 0.0 0.00 0.00 0.00 41 1013.2
20260510163523 81 232 0.0 0.0 0.00 0.00 0.00 43 1013.3
20260510163427 81 25 0.0 0.0 0.00 0.00 0.00 43 1013.3
20260510163314 81 325 0.0 0.0 0.00 0.00 0.00 41 1013.3
20260510163251 81 23 0.0 0.0 0.00 0.00 0.00 43 1013.3
20260510163116 81 64 0.0 0.0 0.00 0.00 0.00 43 1013.4
20260510163102 81 67 0.0 0.0 0.00 0.00 0.00 43 1013.0
20260510163042 81 79 0.0 0.0 0.00 0.00 0.00 42 1013.3
20260510162934 81 44 0.0 1.0 0.00 0.00 0.00 45 1013.3
20260510162820 81 70 0.0 1.0 0.00 0.00 0.00 41 1013.4
20260510162727 81 20 0.0 1.0 0.00 0.00 0.00 43 1013.4
20260510162616 81 315 0.0 6.0 0.00 0.00 0.00 41 1013.4
20260510162523 81 134 0.0 6.0 0.00 0.00 0.00 42 1013.3
20260510162409 81 182 0.0 6.0 0.00 0.00 0.00 42 1013.4
20260510162315 81 105 0.0 6.0 0.00 0.00 0.00 45 1013.4
20260510162227 81 318 0.0 6.0 0.00 0.00 0.00 42 1013.4
20260510162133 81 327 0.0 6.0 0.00 0.00 0.00 42 1013.4
20260510162020 81 108 0.0 6.0 0.00 0.00 0.00 42 1013.4
20260510161933 81 266 0.0 6.0 0.00 0.00 0.00 42 1013.4
20260510161840 81 46 2.0 6.0 0.00 0.00 0.00 43 1013.4
20260510161725 81 34 1.0 5.0 0.00 0.00 0.00 43 1013.4
20260510161611 81 39 0.0 1.0 0.00 0.00 0.00 42 1013.3
20260510161545 81 26 0.0 0.0 0.00 0.00 0.00 44 1013.3
20260510161504 80 17 0.0 0.0 0.00 0.00 0.00 43 1013.0
20260510161415 81 272 0.0 0.0 0.00 0.00 0.00 41 1013.3
20260510161334 81 271 0.0 0.0 0.00 0.00 0.00 47 1013.4
20260510161225 81 214 0.0 0.0 0.00 0.00 0.00 43 1013.4
20260510161131 81 246 0.0 0.0 0.00 0.00 0.00 44 1013.4
20260510161012 80 246 0.0 0.0 0.00 0.00 0.00 44 1013.4
20260510160945 80 241 0.0 0.0 0.00 0.00 0.00 43 1013.4
20260510160811 80 360 0.0 0.0 0.00 0.00 0.00 43 1013.5
20260510160748 80 25 0.0 0.0 0.00 0.00 0.00 43 1013.5
20260510160615 80 20 0.0 0.0 0.00 0.00 0.00 44 1013.5
20260510160541 80 32 0.0 0.0 0.00 0.00 0.00 44 1013.5
20260510160426 80 35 0.0 0.0 0.00 0.00 0.00 43 1013.5
20260510160313 80 70 0.0 0.0 0.00 0.00 0.00 46 1013.5
20260510160226 80 288 0.0 0.0 0.00 0.00 0.00 44 1013.5
20260510160142 80 270 0.0 0.0 0.00 0.00 0.00 43 1013.2
20260510160116 80 244 0.0 0.0 0.00 0.00 0.00 43 1013.5
20260510160022 80 248 0.0 0.0 0.00 0.00 0.00 43 1013.5
20260510155928 80 241 0.0 0.0 0.00 0.00 0.00 45 1013.5
20260510155815 80 121 0.0 0.0 0.00 0.00 0.00 42 1013.7
20260510155729 80 112 0.0 0.0 0.00 0.00 0.00 44 1013.7
20260510155619 80 101 0.0 0.0 0.00 0.00 0.00 43 1013.8
20260510155545 80 277 0.0 0.0 0.00 0.00 0.00 42 1013.8
20260510155410 80 163 0.0 0.0 0.00 0.00 0.00 44 1013.8
20260510155317 80 41 0.0 0.0 0.00 0.00 0.00 43 1013.8
20260510155230 80 101 0.0 1.0 0.00 0.00 0.00 44 1013.8
20260510155115 80 168 0.0 5.0 0.00 0.00 0.00 44 1013.8
20260510155025 80 130 0.0 5.0 0.00 0.00 0.00 43 1013.8
20260510154931 80 175 0.0 5.0 0.00 0.00 0.00 45 1013.7
20260510154823 80 63 0.0 5.0 0.00 0.00 0.00 44 1013.7
20260510154711 80 29 0.0 5.0 0.00 0.00 0.00 45 1013.8
20260510154616 80 83 0.0 5.0 0.00 0.00 0.00 44 1013.8
20260510154600 80 88 0.0 5.0 0.00 0.00 0.00 44 1013.4
20260510154522 80 90 0.0 5.0 0.00 0.00 0.00 44 1013.8
20260510154412 80 55 1.0 5.0 0.00 0.00 0.00 45 1013.7
20260510154318 80 24 0.0 5.0 0.00 0.00 0.00 44 1013.7
20260510154232 80 22 0.0 0.0 0.00 0.00 0.00 46 1013.7
20260510154139 80 360 0.0 0.0 0.00 0.00 0.00 46 1013.7
20260510154051 80 23 0.0 0.0 0.00 0.00 0.00 45 1013.7
20260510153915 80 273 0.0 0.0 0.00 0.00 0.00 46 1013.7
20260510153826 80 222 0.0 3.0 0.00 0.00 0.00 45 1013.7
20260510153732 80 209 0.0 5.0 0.00 0.00 0.00 46 1013.7
20260510153616 80 300 0.0 5.0 0.00 0.00 0.00 46 1013.7
20260510153549 80 304 0.0 5.0 0.00 0.00 0.00 47 1013.7
20260510153437 80 111 0.0 5.0 0.00 0.00 0.00 45 1013.7
20260510153320 80 109 0.0 5.0 0.00 0.00 0.00 47 1013.7
20260510153223 79 80 0.0 5.0 0.00 0.00 0.00 45 1013.7
20260510153148 79 334 0.0 5.0 0.00 0.00 0.00 45 1013.5
20260510153113 79 350 1.0 5.0 0.00 0.00 0.00 48 1013.8
20260510153043 80 15 1.0 5.0 0.00 0.00 0.00 48 1013.8
20260510152936 80 325 0.0 4.0 0.00 0.00 0.00 46 1013.8
20260510152827 80 32 0.0 4.0 0.00 0.00 0.00 45 1013.9
20260510152733 80 29 1.0 4.0 0.00 0.00 0.00 48 1013.9
20260510152618 80 263 1.0 4.0 0.00 0.00 0.00 46 1013.8
20260510152527 79 163 1.0 4.0 0.00 0.00 0.00 52 1013.8
20260510152424 79 23 0.0 0.0 0.00 0.00 0.00 49 1013.8
20260510152326 79 33 0.0 0.0 0.00 0.00 0.00 47 1013.8
20260510152233 79 20 0.0 0.0 0.00 0.00 0.00 47 1013.8
20260510152123 78 42 0.0 0.0 0.00 0.00 0.00 52 1013.8
20260510152033 78 42 0.0 0.0 0.00 0.00 0.00 49 1013.8
20260510151929 78 42 0.0 0.0 0.00 0.00 0.00 49 1013.8
20260510151815 78 49 0.0 0.0 0.00 0.00 0.00 46 1013.8
20260510151723 78 43 0.0 5.0 0.00 0.00 0.00 46 1013.8
20260510151633 78 271 0.0 5.0 0.00 0.00 0.00 47 1013.8
20260510151522 77 296 0.0 5.0 0.00 0.00 0.00 47 1013.5
20260510151512 78 296 0.0 5.0 0.00 0.00 0.00 46 1013.8
20260510151422 78 5 0.0 5.0 0.00 0.00 0.00 47 1013.8
20260510151321 78 5 0.0 5.0 0.00 0.00 0.00 47 1013.8
20260510151212 78 12 0.0 5.0 0.00 0.00 0.00 48 1013.8
20260510151114 78 355 0.0 5.0 0.00 0.00 0.00 46 1013.8
20260510151020 78 310 1.0 5.0 0.00 0.00 0.00 46 1013.9
20260510150918 78 46 1.0 5.0 0.00 0.00 0.00 47 1013.9
20260510150817 78 40 1.0 6.0 0.00 0.00 0.00 47 1013.8
20260510150731 78 43 0.0 6.0 0.00 0.00 0.00 47 1014.0
20260510150641 78 32 0.0 6.0 0.00 0.00 0.00 47 1014.0
20260510150526 78 280 0.0 8.0 0.00 0.00 0.00 47 1014.0
20260510150412 78 59 0.0 8.0 0.00 0.00 0.00 48 1014.0
20260510150346 78 57 0.0 8.0 0.00 0.00 0.00 48 1014.0
20260510150231 78 82 0.0 8.0 0.00 0.00 0.00 47 1014.0
20260510150117 78 346 1.0 8.0 0.00 0.00 0.00 48 1014.0
20260510150034 78 62 2.0 8.0 0.00 0.00 0.00 46 1013.9
20260510150016 77 80 2.0 8.0 0.00 0.00 0.00 46 1013.7
20260510145916 78 82 4.0 8.0 0.00 0.00 0.00 46 1014.0
20260510145819 78 59 3.0 8.0 0.00 0.00 0.00 46 1014.0
20260510145719 78 74 1.0 8.0 0.00 0.00 0.00 49 1013.9
20260510145633 78 24 0.0 4.0 0.00 0.00 0.00 49 1013.9
20260510145512 78 100 0.0 4.0 0.00 0.00 0.00 53 1013.8
20260510145429 78 40 0.0 4.0 0.00 0.00 0.00 49 1013.8
20260510145316 78 36 0.0 4.0 0.00 0.00 0.00 49 1013.8
20260510145222 78 51 0.0 4.0 0.00 0.00 0.00 49 1013.8
20260510145128 78 40 1.0 4.0 0.00 0.00 0.00 48 1013.8
20260510145041 78 57 1.0 4.0 0.00 0.00 0.00 48 1013.8
20260510144911 78 97 0.0 3.0 0.00 0.00 0.00 48 1013.7
20260510144837 78 163 0.0 1.0 0.00 0.00 0.00 49 1013.7
20260510144729 78 302 0.0 1.0 0.00 0.00 0.00 49 1013.7
20260510144616 78 135 0.0 0.0 0.00 0.00 0.00 49 1013.8
20260510144607 77 143 0.0 0.0 0.00 0.00 0.00 49 1013.5
20260510144541 78 278 0.0 0.0 0.00 0.00 0.00 52 1013.8
20260510144426 78 50 0.0 0.0 0.00 0.00 0.00 50 1013.8
20260510144312 77 34 0.0 0.0 0.00 0.00 0.00 50 1013.7
20260510144249 77 81 0.0 0.0 0.00 0.00 0.00 51 1013.7
20260510144113 77 67 0.0 0.0 0.00 0.00 0.00 50 1013.8
20260510144037 77 314 0.0 0.0 0.00 0.00 0.00 50 1013.8
20260510143920 77 75 0.0 4.0 0.00 0.00 0.00 51 1013.7
20260510143826 77 59 0.0 4.0 0.00 0.00 0.00 51 1013.8
20260510143739 77 78 0.0 4.0 0.00 0.00 0.00 50 1013.8
20260510143614 77 30 0.0 8.0 0.00 0.00 0.00 52 1013.8
20260510143520 76 26 0.0 8.0 0.00 0.00 0.00 51 1013.8
20260510143426 76 46 0.0 8.0 0.00 0.00 0.00 51 1013.8
20260510143332 76 41 0.0 8.0 0.00 0.00 0.00 51 1013.8
20260510143224 76 79 1.0 8.0 0.00 0.00 0.00 51 1013.8
20260510143110 76 40 1.0 8.0 0.00 0.00 0.00 51 1013.8
20260510143056 76 98 1.0 8.0 0.00 0.00 0.00 54 1013.5
20260510143020 76 109 1.0 8.0 0.00 0.00 0.00 54 1013.8
20260510142926 76 253 2.0 8.0 0.00 0.00 0.00 52 1013.8
20260510142812 76 108 1.0 8.0 0.00 0.00 0.00 52 1013.8
20260510142725 76 103 0.0 4.0 0.00 0.00 0.00 52 1013.8
20260510142631 76 71 0.0 4.0 0.00 0.00 0.00 52 1013.8
20260510142517 76 55 0.0 3.0 0.00 0.00 0.00 53 1013.8
20260510142447 76 286 0.0 3.0 0.00 0.00 0.00 56 1013.8
20260510142339 76 45 0.0 3.0 0.00 0.00 0.00 54 1013.8
20260510142244 76 148 0.0 3.0 0.00 0.00 0.00 53 1013.8
20260510142109 76 194 0.0 3.0 0.00 0.00 0.00 51 1013.8
20260510142016 76 117 0.0 3.0 0.00 0.00 0.00 51 1013.8
20260510141913 76 78 0.0 3.0 0.00 0.00 0.00 53 1013.8
20260510141845 76 102 0.0 3.0 0.00 0.00 0.00 52 1013.8
20260510141732 76 101 0.0 3.0 0.00 0.00 0.00 52 1013.8
20260510141609 76 306 0.0 0.0 0.00 0.00 0.00 55 1013.8
20260510141542 75 306 0.0 0.0 0.00 0.00 0.00 55 1013.5
20260510141515 76 306 0.0 0.0 0.00 0.00 0.00 56 1013.8
20260510141421 75 333 0.0 0.0 0.00 0.00 0.00 54 1013.8
20260510141334 75 346 0.0 0.0 0.00 0.00 0.00 57 1013.8
20260510141220 75 70 0.0 0.0 0.00 0.00 0.00 58 1013.8
20260510141131 75 43 0.0 0.0 0.00 0.00 0.00 56 1013.8
20260510141016 75 17 0.0 0.0 0.00 0.00 0.00 55 1013.8
20260510140928 75 16 0.0 0.0 0.00 0.00 0.00 56 1013.8
20260510140815 75 200 0.0 0.0 0.00 0.00 0.00 57 1013.8
20260510140718 75 360 0.0 0.0 0.00 0.00 0.00 56 1013.8
20260510140624 74 30 0.0 0.0 0.00 0.00 0.00 55 1013.8
20260510140539 74 89 0.0 0.0 0.00 0.00 0.00 55 1013.8
20260510140430 74 310 0.0 0.0 0.00 0.00 0.00 56 1013.9
20260510140316 74 321 0.0 0.0 0.00 0.00 0.00 57 1013.9
20260510140221 74 116 0.0 0.0 0.00 0.00 0.00 56 1013.8
20260510140134 74 134 0.0 0.0 0.00 0.00 0.00 61 1013.8
20260510140020 74 302 0.0 0.0 0.00 0.00 0.00 58 1013.8
20260510140008 73 298 0.0 0.0 0.00 0.00 0.00 59 1013.5
20260510135911 74 11 0.0 0.0 0.00 0.00 0.00 60 1013.7
20260510135816 74 11 0.0 0.0 0.00 0.00 0.00 59 1013.7
20260510135723 73 9 0.0 0.0 0.00 0.00 0.00 59 1013.7
20260510135609 73 5 0.0 0.0 0.00 0.00 0.00 60 1013.7
20260510135515 73 5 0.0 0.0 0.00 0.00 0.00 62 1013.7
20260510135432 73 5 0.0 1.0 0.00 0.00 0.00 61 1013.7
20260510135318 73 5 0.0 1.0 0.00 0.00 0.00 65 1013.7
20260510135225 73 5 0.0 1.0 0.00 0.00 0.00 62 1013.7
20260510135112 72 355 0.0 1.0 0.00 0.00 0.00 62 1013.7
20260510135018 72 338 0.0 1.0 0.00 0.00 0.00 62 1013.7
20260510134932 72 17 0.0 1.0 0.00 0.00 0.00 61 1013.6
20260510134820 72 272 0.0 1.0 0.00 0.00 0.00 64 1013.6
20260510134727 72 272 0.0 1.0 0.00 0.00 0.00 65 1013.6
20260510134613 72 295 0.0 0.0 0.00 0.00 0.00 63 1013.7
20260510134535 71 266 0.0 0.0 0.00 0.00 0.00 65 1013.4
20260510134520 72 355 0.0 0.0 0.00 0.00 0.00 65 1013.7
20260510134432 72 273 0.0 0.0 0.00 0.00 0.00 66 1013.7
20260510134322 72 44 0.0 0.0 0.00 0.00 0.00 64 1013.7
20260510134228 72 44 0.0 0.0 0.00 0.00 0.00 63 1013.7
20260510134114 71 78 0.0 0.0 0.00 0.00 0.00 65 1013.7
20260510134020 71 80 0.0 0.0 0.00 0.00 0.00 64 1013.7
20260510133909 71 69 0.0 0.0 0.00 0.00 0.00 68 1013.7
20260510133822 71 64 0.0 0.0 0.00 0.00 0.00 70 1013.7
20260510133738 71 64 0.0 0.0 0.00 0.00 0.00 68 1013.7
20260510133708 70 76 0.0 0.0 0.00 0.00 0.00 65 1013.8
20260510133528 70 74 0.0 1.0 0.00 0.00 0.00 67 1013.7
20260510133413 70 72 0.0 1.0 0.00 0.00 0.00 67 1013.8
20260510133346 70 69 0.0 1.0 0.00 0.00 0.00 70 1013.8
20260510133221 69 59 0.0 1.0 0.00 0.00 0.00 71 1013.8
20260510133133 69 80 0.0 1.0 0.00 0.00 0.00 69 1013.8
20260510133120 69 80 0.0 1.0 0.00 0.00 0.00 69 1013.5
20260510133015 69 76 0.0 1.0 0.00 0.00 0.00 70 1013.8
20260510132923 69 90 0.0 1.0 0.00 0.00 0.00 69 1013.8
20260510132829 68 94 0.0 1.0 0.00 0.00 0.00 69 1013.8
20260510132728 68 103 0.0 1.0 0.00 0.00 0.00 71 1013.9
20260510132655 68 89 0.0 0.0 0.00 0.00 0.00 75 1013.9
20260510132511 67 329 0.0 0.0 0.00 0.00 0.00 73 1013.8
20260510132424 67 329 0.0 0.0 0.00 0.00 0.00 74 1013.8
20260510132310 67 275 0.0 0.0 0.00 0.00 0.00 74 1013.9
20260510132216 67 275 0.0 0.0 0.00 0.00 0.00 73 1013.9
20260510132123 66 275 0.0 0.0 0.00 0.00 0.00 74 1013.9
20260510132036 66 275 0.0 0.0 0.00 0.00 0.00 76 1013.8
20260510131921 66 286 0.0 0.0 0.00 0.00 0.00 76 1013.8
20260510131828 66 322 0.0 0.0 0.00 0.00 0.00 76 1013.8
20260510131718 65 46 0.0 0.0 0.00 0.00 0.00 78 1013.8
20260510131625 65 97 0.0 0.0 0.00 0.00 0.00 83 1013.8
20260510131524 64 97 0.0 0.0 0.00 0.00 0.00 80 1013.5
20260510131510 64 97 0.0 0.0 0.00 0.00 0.00 80 1013.8
20260510131424 64 97 0.0 0.0 0.00 0.00 0.00 79 1013.8
20260510131311 64 324 0.0 0.0 0.00 0.00 0.00 85 1013.8
20260510131220 63 324 0.0 0.0 0.00 0.00 0.00 85 1013.8
20260510131126 63 324 0.0 0.0 0.00 0.00 0.00 86 1013.8
20260510131013 63 324 0.0 0.0 0.00 0.00 0.00 88 1013.8
20260510130918 62 324 0.0 0.0 0.00 0.00 0.00 88 1013.8
20260510130831 62 324 0.0 0.0 0.00 0.00 0.00 89 1013.8
20260510130737 62 324 0.0 0.0 0.00 0.00 0.00 88 1013.8
20260510130650 62 324 0.0 0.0 0.00 0.00 0.00 89 1013.8
20260510130518 61 324 0.0 0.0 0.00 0.00 0.00 90 1013.8
20260510130420 61 324 0.0 0.0 0.00 0.00 0.00 91 1013.7
20260510130353 61 324 0.0 0.0 0.00 0.00 0.00 92 1013.7
20260510130219 60 239 0.0 0.0 0.00 0.00 0.00 92 1013.7
20260510130125 60 239 0.0 0.0 0.00 0.00 0.00 93 1013.7
20260510130057 60 239 0.0 0.0 0.00 0.00 0.00 94 1013.5
20260510130015 60 239 0.0 0.0 0.00 0.00 0.00 95 1013.8
20260510125921 60 239 0.0 0.0 0.00 0.00 0.00 96 1013.7
20260510125824 59 239 0.0 0.0 0.00 0.00 0.00 96 1013.7
20260510125734 59 239 0.0 0.0 0.00 0.00 0.00 96 1013.8
20260510125620 59 239 0.0 0.0 0.00 0.00 0.00 96 1013.7
20260510125526 59 239 0.0 0.0 0.00 0.00 0.00 96 1013.7
20260510125416 58 239 0.0 0.0 0.00 0.00 0.00 97 1013.7
20260510125322 58 239 0.0 0.0 0.00 0.00 0.00 97 1013.7
20260510125235 58 239 0.0 0.0 0.00 0.00 0.00 96 1013.8
20260510125122 58 239 0.0 0.0 0.00 0.00 0.00 96 1013.7
20260510125027 58 239 0.0 0.0 0.00 0.00 0.00 97 1013.8
20260510124917 58 239 0.0 0.0 0.00 0.00 0.00 97 1013.7
20260510124823 57 239 0.0 0.0 0.00 0.00 0.00 96 1013.8
20260510124756 57 239 0.0 0.0 0.00 0.00 0.00 96 1013.7
20260510124621 57 239 0.0 0.0 0.00 0.00 0.00 97 1013.7
20260510124606 56 239 0.0 0.0 0.00 0.00 0.00 97 1013.6
20260510124547 57 239 0.0 0.0 0.00 0.00 0.00 97 1013.8
20260510124413 57 239 0.0 0.0 0.00 0.00 0.00 96 1013.8
20260510124346 57 239 0.0 0.0 0.00 0.00 0.00 97 1013.8
20260510124212 56 239 0.0 0.0 0.00 0.00 0.00 97 1013.8
20260510124115 56 239 0.0 0.0 0.00 0.00 0.00 96 1013.8
20260510124011 56 239 0.0 0.0 0.00 0.00 0.00 97 1013.8
20260510123924 56 239 0.0 0.0 0.00 0.00 0.00 97 1013.8
20260510123828 56 239 0.0 0.0 0.00 0.00 0.00 96 1013.8
20260510123711 55 239 0.0 0.0 0.00 0.00 0.00 97 1013.7
20260510123621 55 239 0.0 0.0 0.00 0.00 0.00 97 1013.7
20260510123534 55 239 0.0 0.0 0.00 0.00 0.00 96 1013.8
20260510123420 55 239 0.0 0.0 0.00 0.00 0.00 96 1013.7
20260510123327 55 239 0.0 0.0 0.00 0.00 0.00 97 1013.7
20260510123213 54 239 0.0 0.0 0.00 0.00 0.00 97 1013.7
20260510123124 54 239 0.0 0.0 0.00 0.00 0.00 96 1013.7
20260510123040 54 239 0.0 0.0 0.00 0.00 0.00 96 1013.5
20260510123024 54 239 0.0 0.0 0.00 0.00 0.00 97 1013.7
20260510122931 54 239 0.0 0.0 0.00 0.00 0.00 97 1013.8
20260510122817 54 239 0.0 0.0 0.00 0.00 0.00 97 1013.8
20260510122720 54 239 0.0 0.0 0.00 0.00 0.00 96 1013.7
20260510122625 54 239 0.0 0.0 0.00 0.00 0.00 96 1013.7
20260510122512 53 239 0.0 0.0 0.00 0.00 0.00 96 1013.7
20260510122425 53 239 0.0 0.0 0.00 0.00 0.00 97 1013.7
20260510122339 53 239 0.0 0.0 0.00 0.00 0.00 97 1013.7
20260510122232 53 239 0.0 0.0 0.00 0.00 0.00 96 1013.7
20260510122110 53 239 0.0 0.0 0.00 0.00 0.00 96 1013.6
20260510122022 53 239 0.0 0.0 0.00 0.00 0.00 96 1013.6
20260510121933 53 239 0.0 0.0 0.00 0.00 0.00 97 1013.7
20260510121844 52 239 0.0 0.0 0.00 0.00 0.00 96 1013.7
20260510121726 52 239 0.0 0.0 0.00 0.00 0.00 96 1013.7
20260510121612 52 239 0.0 0.0 0.00 0.00 0.00 96 1013.8
20260510121546 52 239 0.0 0.0 0.00 0.00 0.00 96 1013.8
20260510121512 51 239 0.0 0.0 0.00 0.00 0.00 96 1013.5
20260510121410 52 239 0.0 0.0 0.00 0.00 0.00 96 1013.8
20260510121325 51 239 0.0 0.0 0.00 0.00 0.00 96 1013.8
20260510121215 51 239 0.0 0.0 0.00 0.00 0.00 96 1013.8
20260510121130 51 239 0.0 0.0 0.00 0.00 0.00 96 1013.8
20260510121034 51 239 0.0 0.0 0.00 0.00 0.00 96 1013.8
20260510120920 51 239 0.0 0.0 0.00 0.00 0.00 96 1013.7
20260510120847 51 239 0.0 0.0 0.00 0.00 0.00 96 1013.7
20260510120739 50 239 0.0 0.0 0.00 0.00 0.00 96 1013.7
20260510120617 50 239 0.0 0.0 0.00 0.00 0.00 96 1013.7
20260510120523 50 239 0.0 0.0 0.00 0.00 0.00 96 1013.7
20260510120409 50 239 0.0 0.0 0.00 0.00 0.00 96 1013.7
20260510120317 49 239 0.0 0.0 0.00 0.00 0.00 96 1013.7
20260510120249 49 239 0.0 0.0 0.00 0.00 0.00 96 1013.7
20260510120114 49 239 0.0 0.0 0.00 0.00 0.00 96 1013.7
20260510120054 48 239 0.0 0.0 0.00 0.00 0.00 96 1013.4
20260510120044 48 239 0.0 0.0 0.00 0.00 0.00 96 1013.7
20260510115936 48 239 0.0 0.0 0.00 0.00 0.00 96 1013.6
20260510115836 48 239 0.0 0.0 0.00 0.00 0.00 96 1013.5
20260510115722 48 239 0.0 0.0 0.00 0.00 0.00 96 1013.5
20260510115635 48 239 0.0 0.0 0.00 0.00 0.00 96 1013.4
20260510115541 47 239 0.0 0.0 0.00 0.00 0.00 96 1013.5
20260510115453 47 239 0.0 0.0 0.00 0.00 0.00 96 1013.5
20260510115323 47 239 0.0 0.0 0.00 0.00 0.00 96 1013.5
20260510115242 47 239 0.0 0.0 0.00 0.00 0.00 96 1013.5
20260510115133 47 239 0.0 0.0 0.00 0.00 0.00 96 1013.5
20260510115013 47 239 0.0 0.0 0.00 0.00 0.00 96 1013.4
20260510114926 46 239 0.0 0.0 0.00 0.00 0.00 96 1013.4
20260510114813 46 239 0.0 0.0 0.00 0.00 0.00 96 1013.4
20260510114723 46 239 0.0 0.0 0.00 0.00 0.00 96 1013.4
20260510114625 46 239 0.0 0.0 0.00 0.00 0.00 96 1013.5
20260510114532 45 239 0.0 0.0 0.00 0.00 0.00 96 1013.2
20260510114510 46 239 0.0 0.0 0.00 0.00 0.00 96 1013.4
20260510114443 46 239 0.0 0.0 0.00 0.00 0.00 96 1013.4
20260510114355 46 239 0.0 0.0 0.00 0.00 0.00 96 1013.4
20260510114310 45 239 0.0 0.0 0.00 0.00 0.00 96 1013.5
20260510114112 45 239 0.0 0.0 0.00 0.00 0.00 96 1013.5
20260510114029 45 239 0.0 0.0 0.00 0.00 0.00 96 1013.5
20260510113935 45 239 0.0 0.0 0.00 0.00 0.00 96 1013.5
20260510113841 45 239 0.0 0.0 0.00 0.00 0.00 96 1013.4
20260510113726 45 239 0.0 0.0 0.00 0.00 0.00 96 1013.4
20260510113613 45 239 0.0 0.0 0.00 0.00 0.00 96 1013.4
20260510113526 45 239 0.0 0.0 0.00 0.00 0.00 96 1013.4
20260510113436 44 239 0.0 0.0 0.00 0.00 0.00 96 1013.4
20260510113321 44 239 0.0 0.0 0.00 0.00 0.00 96 1013.4
20260510113235 44 239 0.0 0.0 0.00 0.00 0.00 96 1013.4
20260510113122 44 239 0.0 0.0 0.00 0.00 0.00 95 1013.4
20260510113027 44 239 0.0 0.0 0.00 0.00 0.00 95 1013.4
20260510113004 44 239 0.0 0.0 0.00 0.00 0.00 95 1013.2
20260510112933 44 239 0.0 0.0 0.00 0.00 0.00 95 1013.4
20260510112902 44 239 0.0 0.0 0.00 0.00 0.00 95 1013.4
20260510112719 44 239 0.0 0.0 0.00 0.00 0.00 95 1013.3
20260510112626 44 239 0.0 0.0 0.00 0.00 0.00 95 1013.3
20260510112512 44 239 0.0 0.0 0.00 0.00 0.00 95 1013.3
20260510112419 44 239 0.0 0.0 0.00 0.00 0.00 95 1013.3
20260510112310 43 239 0.0 0.0 0.00 0.00 0.00 95 1013.3
20260510112242 43 239 0.0 0.0 0.00 0.00 0.00 95 1013.3
20260510112154 43 239 0.0 0.0 0.00 0.00 0.00 95 1013.3
20260510112021 43 239 0.0 0.0 0.00 0.00 0.00 95 1013.3
20260510111925 43 239 0.0 0.0 0.00 0.00 0.00 95 1013.3
20260510111812 43 239 0.0 0.0 0.00 0.00 0.00 95 1013.3
20260510111738 43 239 0.0 0.0 0.00 0.00 0.00 95 1013.3
20260510111634 43 239 0.0 0.0 0.00 0.00 0.00 95 1013.2
20260510111520 43 239 0.0 0.0 0.00 0.00 0.00 95 1013.2
20260510111504 43 239 0.0 0.0 0.00 0.00 0.00 95 1013.0
20260510111442 43 239 0.0 0.0 0.00 0.00 0.00 95 1013.2
20260510111334 43 239 0.0 0.0 0.00 0.00 0.00 95 1013.1
20260510111220 43 239 0.0 0.0 0.00 0.00 0.00 95 1013.1
20260510111127 43 239 0.0 0.0 0.00 0.00 0.00 95 1013.1
20260510111017 43 239 0.0 0.0 0.00 0.00 0.00 95 1013.1
20260510110924 43 239 0.0 0.0 0.00 0.00 0.00 95 1013.1
20260510110810 43 239 0.0 0.0 0.00 0.00 0.00 95 1013.1
20260510110717 43 239 0.0 0.0 0.00 0.00 0.00 95 1013.1
20260510110630 43 239 0.0 0.0 0.00 0.00 0.00 95 1013.1
20260510110520 43 239 0.0 0.0 0.00 0.00 0.00 95 1013.0
20260510110427 43 239 0.0 0.0 0.00 0.00 0.00 95 1013.0
20260510110313 43 239 0.0 0.0 0.00 0.00 0.00 95 1013.0
20260510110220 43 239 0.0 0.0 0.00 0.00 0.00 95 1013.0
20260510110139 42 239 0.0 0.0 0.00 0.00 0.00 95 1012.8
20260510110126 43 239 0.0 0.0 0.00 0.00 0.00 95 1013.0
20260510110039 43 239 0.0 0.0 0.00 0.00 0.00 95 1013.0
20260510105921 43 239 0.0 0.0 0.00 0.00 0.00 95 1012.9
20260510105854 42 239 0.0 0.0 0.00 0.00 0.00 95 1013.0
20260510105735 42 239 0.0 0.0 0.00 0.00 0.00 95 1013.0
20260510105648 42 239 0.0 0.0 0.00 0.00 0.00 95 1013.0
20260510105513 42 239 0.0 0.0 0.00 0.00 0.00 95 1013.0
20260510105419 42 239 0.0 0.0 0.00 0.00 0.00 95 1013.0
20260510105325 42 239 0.0 0.0 0.00 0.00 0.00 95 1013.0
20260510105242 42 239 0.0 0.0 0.00 0.00 0.00 95 1013.0
20260510105128 42 239 0.0 0.0 0.00 0.00 0.00 95 1013.0
20260510105015 42 239 0.0 0.0 0.00 0.00 0.00 95 1013.0
20260510104922 42 239 0.0 0.0 0.00 0.00 0.00 95 1012.9
20260510104828 42 239 0.0 0.0 0.00 0.00 0.00 95 1012.9
20260510104715 42 239 0.0 0.0 0.00 0.00 0.00 95 1012.9
20260510104632 42 239 0.0 0.0 0.00 0.00 0.00 95 1012.9
20260510104558 42 239 0.0 0.0 0.00 0.00 0.00 95 1012.7
20260510104517 42 239 0.0 0.0 0.00 0.00 0.00 95 1012.9
20260510104423 42 239 0.0 0.0 0.00 0.00 0.00 95 1012.9
20260510104310 42 239 0.0 0.0 0.00 0.00 0.00 95 1012.9
20260510104243 42 239 0.0 0.0 0.00 0.00 0.00 95 1012.9
20260510104113 42 239 0.0 0.0 0.00 0.00 0.00 95 1012.9
20260510104022 42 239 0.0 0.0 0.00 0.00 0.00 95 1012.9
20260510103910 42 239 0.0 0.0 0.00 0.00 0.00 95 1012.9
20260510103822 42 239 0.0 0.0 0.00 0.00 0.00 95 1012.9
20260510103729 42 239 0.0 0.0 0.00 0.00 0.00 95 1012.9
20260510103614 42 239 0.0 0.0 0.00 0.00 0.00 95 1012.8
20260510103521 42 239 0.0 0.0 0.00 0.00 0.00 95 1012.7
20260510103412 42 239 0.0 0.0 0.00 0.00 0.00 94 1012.7
20260510103325 42 239 0.0 0.0 0.00 0.00 0.00 94 1012.7
20260510103230 42 239 0.0 0.0 0.00 0.00 0.00 94 1012.6
20260510103112 42 239 0.0 0.0 0.00 0.00 0.00 94 1012.7
20260510103053 41 239 0.0 0.0 0.00 0.00 0.00 94 1012.5
20260510103014 42 239 0.0 0.0 0.00 0.00 0.00 94 1012.6
20260510102920 42 239 0.0 0.0 0.00 0.00 0.00 94 1012.6
20260510102854 42 239 0.0 0.0 0.00 0.00 0.00 94 1012.6
20260510102731 42 239 0.0 0.0 0.00 0.00 0.00 94 1012.6
20260510102643 42 239 0.0 0.0 0.00 0.00 0.00 94 1012.6
20260510102509 42 239 0.0 0.0 0.00 0.00 0.00 94 1012.6
20260510102415 42 239 0.0 0.0 0.00 0.00 0.00 94 1012.6
20260510102322 42 239 0.0 0.0 0.00 0.00 0.00 94 1012.6
20260510102212 42 239 0.0 0.0 0.00 0.00 0.00 94 1012.6
20260510102125 42 239 0.0 0.0 0.00 0.00 0.00 94 1012.6
20260510102012 42 239 0.0 0.0 0.00 0.00 0.00 94 1012.6
20260510101918 42 239 0.0 0.0 0.00 0.00 0.00 94 1012.6
20260510101825 42 239 0.0 0.0 0.00 0.00 0.00 94 1012.6
20260510101738 42 239 0.0 0.0 0.00 0.00 0.00 94 1012.6
20260510101628 42 239 0.0 0.0 0.00 0.00 0.00 94 1012.6
20260510101557 41 239 0.0 0.0 0.00 0.00 0.00 94 1012.4
20260510101534 42 239 0.0 0.0 0.00 0.00 0.00 94 1012.5
20260510101426 42 239 0.0 0.0 0.00 0.00 0.00 94 1012.5
20260510101332 42 239 0.0 0.0 0.00 0.00 0.00 94 1012.5
20260510101218 42 239 0.0 0.0 0.00 0.00 0.00 94 1012.4
20260510101124 42 239 0.0 0.0 0.00 0.00 0.00 94 1012.4
20260510101015 42 239 0.0 0.0 0.00 0.00 0.00 94 1012.4
20260510100922 42 239 0.0 0.0 0.00 0.00 0.00 94 1012.4
20260510100809 42 239 0.0 0.0 0.00 0.00 0.00 94 1012.4
20260510100722 42 239 0.0 0.0 0.00 0.00 0.00 94 1012.4
20260510100624 42 239 0.0 0.0 0.00 0.00 0.00 94 1012.3
20260510100515 42 239 0.0 0.0 0.00 0.00 0.00 94 1012.3
20260510100449 42 239 0.0 0.0 0.00 0.00 0.00 94 1012.3
20260510100333 42 239 0.0 0.0 0.00 0.00 0.00 94 1012.3
20260510100219 42 239 0.0 0.0 0.00 0.00 0.00 94 1012.2
20260510100125 42 239 0.0 0.0 0.00 0.00 0.00 94 1012.2
20260510100052 42 239 0.0 0.0 0.00 0.00 0.00 94 1012.0
20260510100011 42 239 0.0 0.0 0.00 0.00 0.00 94 1012.1
20260510095921 42 239 0.0 0.0 0.00 0.00 0.00 94 1012.1
20260510095834 42 239 0.0 0.0 0.00 0.00 0.00 94 1012.2
20260510095720 42 239 0.0 0.0 0.00 0.00 0.00 94 1012.1
20260510095626 42 239 0.0 0.0 0.00 0.00 0.00 94 1012.1
20260510095513 42 239 0.0 0.0 0.00 0.00 0.00 94 1012.1
20260510095423 42 239 0.0 0.0 0.00 0.00 0.00 94 1012.1
20260510095309 42 239 0.0 0.0 0.00 0.00 0.00 94 1012.1
20260510095215 42 239 0.0 0.0 0.00 0.00 0.00 94 1012.1
20260510095129 42 239 0.0 0.0 0.00 0.00 0.00 94 1012.0
20260510095016 42 239 0.0 0.0 0.00 0.00 0.00 94 1012.0
20260510094921 42 239 0.0 0.0 0.00 0.00 0.00 94 1012.0
20260510094812 42 239 0.0 0.0 0.00 0.00 0.00 94 1011.9
20260510094717 42 239 0.0 0.0 0.00 0.00 0.00 94 1011.9
20260510094624 42 239 0.0 0.0 0.00 0.00 0.00 94 1011.9
20260510094527 42 239 0.0 0.0 0.00 0.00 0.00 94 1011.7
20260510094510 42 239 0.0 0.0 0.00 0.00 0.00 94 1011.9
20260510094422 42 239 0.0 0.0 0.00 0.00 0.00 94 1011.9
20260510094334 42 239 0.0 0.0 0.00 0.00 0.00 94 1011.9
20260510094218 42 239 0.0 0.0 0.00 0.00 0.00 94 1011.9
20260510094131 42 239 0.0 0.0 0.00 0.00 0.00 94 1011.9
20260510094017 42 239 0.0 0.0 0.00 0.00 0.00 94 1011.9
20260510093924 42 239 0.0 0.0 0.00 0.00 0.00 94 1011.9
20260510093811 42 239 0.0 0.0 0.00 0.00 0.00 94 1011.9
20260510093721 42 239 0.0 0.0 0.00 0.00 0.00 94 1011.9
20260510093634 42 239 0.0 0.0 0.00 0.00 0.00 94 1011.9
20260510093520 42 239 0.0 0.0 0.00 0.00 0.00 94 1011.9
20260510093426 42 239 0.0 0.0 0.00 0.00 0.00 94 1011.9
20260510093313 42 239 0.0 0.0 0.00 0.00 0.00 94 1011.9
20260510093246 42 239 0.0 0.0 0.00 0.00 0.00 94 1011.9
20260510093115 42 239 0.0 0.0 0.00 0.00 0.00 94 1011.9
20260510093059 42 239 0.0 0.0 0.00 0.00 0.00 94 1011.7
20260510093018 42 239 0.0 0.0 0.00 0.00 0.00 94 1011.9
20260510092924 42 239 0.0 0.0 0.00 0.00 0.00 94 1011.9
20260510092811 42 239 0.0 0.0 0.00 0.00 0.00 94 1011.9
20260510092744 42 239 0.0 0.0 0.00 0.00 0.00 94 1011.9
20260510092609 42 239 0.0 0.0 0.00 0.00 0.00 94 1011.9
20260510092520 42 239 0.0 0.0 0.00 0.00 0.00 94 1011.9
20260510092433 42 239 0.0 0.0 0.00 0.00 0.00 94 1011.9
20260510092316 42 239 0.0 0.0 0.00 0.00 0.00 94 1011.9
20260510092222 42 239 0.0 0.0 0.00 0.00 0.00 94 1011.9
20260510092117 43 239 0.0 0.0 0.00 0.00 0.00 94 1011.9
20260510092023 43 239 0.0 0.0 0.00 0.00 0.00 94 1011.9
20260510091914 43 239 0.0 0.0 0.00 0.00 0.00 94 1011.9
20260510091827 43 239 0.0 0.0 0.00 0.00 0.00 94 1011.9
20260510091714 43 239 0.0 0.0 0.00 0.00 0.00 94 1011.9
20260510091640 43 239 0.0 0.0 0.00 0.00 0.00 94 1011.9
20260510091532 43 239 0.0 0.0 0.00 0.00 0.00 94 1011.9
20260510091518 42 239 0.0 0.0 0.00 0.00 0.00 94 1011.7
20260510091438 43 239 0.0 0.0 0.00 0.00 0.00 94 1011.9
20260510091326 43 239 0.0 0.0 0.00 0.00 0.00 94 1011.9
20260510091213 43 239 0.0 0.0 0.00 0.00 0.00 94 1011.9
20260510091127 43 239 0.0 0.0 0.00 0.00 0.00 94 1011.9
20260510091033 43 239 0.0 0.0 0.00 0.00 0.00 94 1011.9
20260510090919 43 239 0.0 0.0 0.00 0.00 0.00 94 1011.9
20260510090826 43 239 0.0 0.0 0.00 0.00 0.00 94 1011.9
20260510090716 43 239 0.0 0.0 0.00 0.00 0.00 94 1011.9
20260510090629 43 239 0.0 0.0 0.00 0.00 0.00 94 1011.9
20260510090515 43 239 0.0 0.0 0.00 0.00 0.00 94 1011.8
20260510090422 43 239 0.0 0.0 0.00 0.00 0.00 94 1011.9
20260510090328 43 239 0.0 0.0 0.00 0.00 0.00 94 1011.9
20260510090219 43 239 0.0 0.0 0.00 0.00 0.00 94 1011.8
20260510090124 43 239 0.0 0.0 0.00 0.00 0.00 94 1011.8
20260510090039 42 239 0.0 0.0 0.00 0.00 0.00 94 1011.7
20260510090010 43 239 0.0 0.0 0.00 0.00 0.00 94 1011.9
20260510085923 43 239 0.0 0.0 0.00 0.00 0.00 94 1011.9
20260510085809 43 239 0.0 0.0 0.00 0.00 0.00 94 1011.9
20260510085716 43 239 0.0 0.0 0.00 0.00 0.00 94 1011.9
20260510085626 43 239 0.0 0.0 0.00 0.00 0.00 94 1012.0
20260510085512 43 239 0.0 0.0 0.00 0.00 0.00 94 1011.9
20260510085445 43 239 0.0 0.0 0.00 0.00 0.00 94 1011.9
20260510085310 43 239 0.0 0.0 0.00 0.00 0.00 94 1011.9
20260510085217 43 239 0.0 0.0 0.00 0.00 0.00 94 1011.9
20260510085124 43 239 0.0 0.0 0.00 0.00 0.00 94 1011.9
20260510085015 43 239 0.0 0.0 0.00 0.00 0.00 94 1011.9
20260510084928 43 239 0.0 0.0 0.00 0.00 0.00 94 1011.9
20260510084814 43 239 0.0 0.0 0.00 0.00 0.00 94 1011.8
20260510084721 43 239 0.0 0.0 0.00 0.00 0.00 94 1011.9
20260510084627 43 239 0.0 0.0 0.00 0.00 0.00 94 1011.9
20260510084544 43 239 0.0 0.0 0.00 0.00 0.00 94 1011.8
20260510084521 42 239 0.0 0.0 0.00 0.00 0.00 94 1011.6
20260510084429 43 239 0.0 0.0 0.00 0.00 0.00 94 1011.9
20260510084315 43 239 0.0 0.0 0.00 0.00 0.00 94 1011.9
20260510084241 43 239 0.0 0.0 0.00 0.00 0.00 94 1011.9
20260510084133 43 239 0.0 0.0 0.00 0.00 0.00 94 1011.8
20260510084019 43 239 0.0 0.0 0.00 0.00 0.00 94 1011.8
20260510083910 43 239 0.0 0.0 0.00 0.00 0.00 94 1011.8
20260510083837 43 239 0.0 0.0 0.00 0.00 0.00 94 1011.8
20260510083729 43 239 0.0 0.0 0.00 0.00 0.00 94 1011.8
20260510083616 43 239 0.0 0.0 0.00 0.00 0.00 94 1011.8
20260510083541 43 239 0.0 0.0 0.00 0.00 0.00 94 1011.8
20260510083427 43 239 0.0 0.0 0.00 0.00 0.00 94 1011.8
20260510083317 43 239 0.0 0.0 0.00 0.00 0.00 94 1011.7
20260510083230 43 239 0.0 0.0 0.00 0.00 0.00 94 1011.8
20260510083116 43 239 0.0 0.0 0.00 0.00 0.00 94 1011.8
20260510083111 42 239 0.0 0.0 0.00 0.00 0.00 94 1011.5
20260510083021 43 239 0.0 0.0 0.00 0.00 0.00 94 1011.7
20260510082934 43 239 0.0 0.0 0.00 0.00 0.00 94 1011.7
20260510082841 43 239 0.0 0.0 0.00 0.00 0.00 94 1011.7
20260510082710 43 239 0.0 0.0 0.00 0.00 0.00 93 1011.7
20260510082617 43 239 0.0 0.0 0.00 0.00 0.00 93 1011.7
20260510082523 43 239 0.0 0.0 0.00 0.00 0.00 93 1011.7
20260510082436 43 239 0.0 0.0 0.00 0.00 0.00 93 1011.7
20260510082337 43 239 0.0 0.0 0.00 0.00 0.00 93 1011.6
20260510082224 43 239 0.0 0.0 0.00 0.00 0.00 93 1011.6
20260510082115 43 239 0.0 0.0 0.00 0.00 0.00 93 1011.7
20260510082028 43 239 0.0 0.0 0.00 0.00 0.00 93 1011.6
20260510081914 43 239 0.0 0.0 0.00 0.00 0.00 93 1011.6
20260510081820 43 239 0.0 0.0 0.00 0.00 0.00 93 1011.6
20260510081753 43 239 0.0 0.0 0.00 0.00 0.00 93 1011.6
20260510081638 43 239 0.0 0.0 0.00 0.00 0.00 93 1011.6
20260510081608 43 239 0.0 0.0 0.00 0.00 0.00 93 1011.3
20260510081523 43 239 0.0 0.0 0.00 0.00 0.00 93 1011.6
20260510081413 43 239 0.0 0.0 0.00 0.00 0.00 93 1011.6
20260510081320 43 239 0.0 0.0 0.00 0.00 0.00 93 1011.5
20260510081233 43 239 0.0 0.0 0.00 0.00 0.00 93 1011.6
20260510081119 43 239 0.0 0.0 0.00 0.00 0.00 93 1011.6
20260510081026 43 239 0.0 0.0 0.00 0.00 0.00 93 1011.6
20260510080916 43 239 0.0 0.0 0.00 0.00 0.00 93 1011.5
20260510080849 43 239 0.0 0.0 0.00 0.00 0.00 93 1011.6
20260510080716 43 239 0.0 0.0 0.00 0.00 0.00 93 1011.5
20260510080621 43 239 0.0 0.0 0.00 0.00 0.00 93 1011.6
20260510080528 43 239 0.0 0.0 0.00 0.00 0.00 93 1011.5
20260510080434 43 239 0.0 0.0 0.00 0.00 0.00 93 1011.5
20260510080330 43 239 0.0 0.0 0.00 0.00 0.00 93 1011.5
20260510080217 43 239 0.0 0.0 0.00 0.00 0.00 93 1011.5
20260510080123 43 239 0.0 0.0 0.00 0.00 0.00 93 1011.5
20260510080054 43 239 0.0 0.0 0.00 0.00 0.00 93 1011.3
20260510080009 43 239 0.0 0.0 0.00 0.00 0.00 93 1011.5
20260510075942 44 239 0.0 0.0 0.00 0.00 0.00 93 1011.5
20260510075847 43 239 0.0 0.0 0.00 0.00 0.00 93 1011.5
20260510075740 44 239 0.0 0.0 0.00 0.00 0.00 93 1011.4
20260510075648 44 239 0.0 0.0 0.00 0.00 0.00 93 1011.5
20260510075514 44 239 0.0 0.0 0.00 0.00 0.00 93 1011.4
20260510075420 44 239 0.0 0.0 0.00 0.00 0.00 93 1011.4
20260510075333 44 239 0.0 0.0 0.00 0.00 0.00 93 1011.4
20260510075220 44 239 0.0 0.0 0.00 0.00 0.00 93 1011.5
20260510075146 44 239 0.0 0.0 0.00 0.00 0.00 93 1011.4
20260510075042 44 239 0.0 0.0 0.00 0.00 0.00 93 1011.4
20260510074927 44 239 0.0 0.0 0.00 0.00 0.00 93 1011.4
20260510074814 44 239 0.0 0.0 0.00 0.00 0.00 93 1011.5
20260510074720 44 239 0.0 0.0 0.00 0.00 0.00 93 1011.4
20260510074634 44 239 0.0 0.0 0.00 0.00 0.00 93 1011.4
20260510074524 43 239 0.0 0.0 0.00 0.00 0.00 93 1011.2
20260510074511 44 239 0.0 0.0 0.00 0.00 0.00 93 1011.4
20260510074448 44 239 0.0 0.0 0.00 0.00 0.00 93 1011.4
20260510074314 44 239 0.0 0.0 0.00 0.00 0.00 93 1011.4
20260510074219 44 239 0.0 0.0 0.00 0.00 0.00 93 1011.4
20260510074132 44 239 0.0 0.0 0.00 0.00 0.00 93 1011.4
20260510074018 44 239 0.0 0.0 0.00 0.00 0.00 93 1011.4
20260510073920 44 239 0.0 0.0 0.00 0.00 0.00 93 1011.4
20260510073810 44 239 0.0 0.0 0.00 0.00 0.00 93 1011.3
20260510073717 44 239 0.0 0.0 0.00 0.00 0.00 93 1011.3
20260510073623 44 239 0.0 0.0 0.00 0.00 0.00 93 1011.3
20260510073537 44 239 0.0 0.0 0.00 0.00 0.00 93 1011.3
20260510073419 44 239 0.0 0.0 0.00 0.00 0.00 93 1011.4
20260510073310 44 239 0.0 0.0 0.00 0.00 0.00 93 1011.4
20260510073217 44 239 0.0 0.0 0.00 0.00 0.00 93 1011.4
20260510073122 44 239 0.0 0.0 0.00 0.00 0.00 93 1011.4
20260510073035 44 239 0.0 0.0 0.00 0.00 0.00 93 1011.4
20260510073025 44 239 0.0 0.0 0.00 0.00 0.00 93 1011.2
20260510072914 44 239 0.0 0.0 0.00 0.00 0.00 93 1011.4
20260510072812 44 239 0.0 0.0 0.00 0.00 0.00 93 1011.3
20260510072718 44 239 0.0 0.0 0.00 0.00 0.00 93 1011.3
20260510072624 44 239 0.0 0.0 0.00 0.00 0.00 93 1011.3
20260510072510 45 239 0.0 0.0 0.00 0.00 0.00 93 1011.3
20260510072417 45 239 0.0 0.0 0.00 0.00 0.00 93 1011.3
20260510072331 44 239 0.0 0.0 0.00 0.00 0.00 93 1011.3
20260510072220 44 239 0.0 0.0 0.00 0.00 0.00 94 1011.3
20260510072127 45 239 0.0 0.0 0.00 0.00 0.00 94 1011.2
20260510072013 45 239 0.0 0.0 0.00 0.00 0.00 94 1011.2
20260510071921 45 239 0.0 0.0 0.00 0.00 0.00 94 1011.2
20260510071826 45 239 0.0 0.0 0.00 0.00 0.00 94 1011.2
20260510071717 45 239 0.0 0.0 0.00 0.00 0.00 93 1011.2
20260510071630 44 239 0.0 0.0 0.00 0.00 0.00 93 1011.2
20260510071613 44 239 0.0 0.0 0.00 0.00 0.00 93 1011.0
20260510071536 44 239 0.0 0.0 0.00 0.00 0.00 93 1011.1
20260510071422 44 239 0.0 0.0 0.00 0.00 0.00 93 1011.1
20260510071335 44 239 0.0 0.0 0.00 0.00 0.00 93 1011.2
20260510071220 45 239 0.0 0.0 0.00 0.00 0.00 93 1011.2
20260510071111 45 239 0.0 0.0 0.00 0.00 0.00 93 1011.1
20260510071017 45 239 0.0 0.0 0.00 0.00 0.00 93 1011.1
20260510070924 45 239 0.0 0.0 0.00 0.00 0.00 93 1011.2
20260510070810 45 239 0.0 0.0 0.00 0.00 0.00 93 1011.1
20260510070723 45 239 0.0 0.0 0.00 0.00 0.00 93 1011.1
20260510070609 45 239 0.0 0.0 0.00 0.00 0.00 93 1011.0
20260510070519 45 239 0.0 0.0 0.00 0.00 0.00 93 1011.0
20260510070426 45 239 0.0 0.0 0.00 0.00 0.00 93 1011.0
20260510070312 45 239 0.0 0.0 0.00 0.00 0.00 93 1011.0
20260510070219 45 239 0.0 0.0 0.00 0.00 0.00 93 1011.0
20260510070132 45 239 0.0 0.0 0.00 0.00 0.00 93 1011.1
20260510070022 45 239 0.0 0.0 0.00 0.00 0.00 93 1011.1
20260510070003 45 239 0.0 0.0 0.00 0.00 0.00 93 1010.9
20260510065928 45 239 0.0 0.0 0.00 0.00 0.00 93 1011.1
20260510065814 45 239 0.0 0.0 0.00 0.00 0.00 93 1011.1
20260510065721 45 239 0.0 0.0 0.00 0.00 0.00 93 1011.1
20260510065634 45 239 0.0 0.0 0.00 0.00 0.00 93 1011.2
20260510065540 45 239 0.0 0.0 0.00 0.00 0.00 93 1011.2
20260510065430 45 239 0.0 0.0 0.00 0.00 0.00 93 1011.1
20260510065323 45 239 0.0 0.0 0.00 0.00 0.00 93 1011.1
20260510065248 45 239 0.0 0.0 0.00 0.00 0.00 93 1011.2
20260510065112 45 239 0.0 0.0 0.00 0.00 0.00 93 1011.1
20260510065019 45 239 0.0 0.0 0.00 0.00 0.00 93 1011.1
20260510064932 45 239 0.0 0.0 0.00 0.00 0.00 93 1011.0
20260510064818 45 239 0.0 0.0 0.00 0.00 0.00 93 1011.0
20260510064755 45 239 0.0 0.0 0.00 0.00 0.00 93 1011.0
20260510064640 45 239 0.0 0.0 0.00 0.00 0.00 93 1011.1
20260510064559 45 239 0.0 0.0 0.00 0.00 0.00 93 1010.8
20260510064524 45 239 0.0 0.0 0.00 0.00 0.00 93 1011.0
20260510064412 45 239 0.0 0.0 0.00 0.00 0.00 93 1011.0
20260510064325 45 239 0.0 0.0 0.00 0.00 0.00 93 1011.0
20260510064230 45 239 0.0 0.0 0.00 0.00 0.00 93 1011.1
20260510064120 45 239 0.0 0.0 0.00 0.00 0.00 93 1011.0
20260510064027 45 239 0.0 0.0 0.00 0.00 0.00 93 1011.0
20260510063933 45 239 0.0 0.0 0.00 0.00 0.00 93 1011.0
20260510063825 45 239 0.0 0.0 0.00 0.00 0.00 93 1011.0
20260510063712 45 239 0.0 0.0 0.00 0.00 0.00 93 1010.9
20260510063619 45 239 0.0 0.0 0.00 0.00 0.00 93 1010.9
20260510063510 45 239 0.0 0.0 0.00 0.00 0.00 93 1010.9
20260510063416 45 239 0.0 0.0 0.00 0.00 0.00 93 1010.9
20260510063323 45 239 0.0 0.0 0.00 0.00 0.00 93 1010.9
20260510063209 45 239 0.0 0.0 0.00 0.00 0.00 93 1010.8
20260510063122 45 239 0.0 0.0 0.00 0.00 0.00 93 1010.8
20260510063105 45 239 0.0 0.0 0.00 0.00 0.00 93 1010.6
20260510063013 45 239 0.0 0.0 0.00 0.00 0.00 93 1010.8
20260510062938 45 239 0.0 0.0 0.00 0.00 0.00 93 1010.8
20260510062830 45 239 0.0 0.0 0.00 0.00 0.00 93 1010.8
20260510062716 45 239 0.0 0.0 0.00 0.00 0.00 93 1010.8
20260510062622 45 239 0.0 0.0 0.00 0.00 0.00 93 1010.8
20260510062509 46 239 0.0 0.0 0.00 0.00 0.00 93 1010.8
20260510062419 46 239 0.0 0.0 0.00 0.00 0.00 93 1010.8
20260510062325 46 239 0.0 0.0 0.00 0.00 0.00 93 1010.8
20260510062238 46 239 0.0 0.0 0.00 0.00 0.00 93 1010.8
20260510062123 46 239 0.0 0.0 0.00 0.00 0.00 93 1010.9
20260510062010 46 239 0.0 0.0 0.00 0.00 0.00 93 1010.8
20260510061943 46 239 0.0 0.0 0.00 0.00 0.00 93 1010.8
20260510061833 46 239 0.0 0.0 0.00 0.00 0.00 92 1010.8
20260510061717 46 239 0.0 0.0 0.00 0.00 0.00 93 1010.8
20260510061630 46 239 0.0 0.0 0.00 0.00 0.00 92 1010.8
20260510061603 45 239 0.0 0.0 0.00 0.00 0.00 92 1010.5
20260510061515 46 239 0.0 0.0 0.00 0.00 0.00 93 1010.8
20260510061421 46 239 0.0 0.0 0.00 0.00 0.00 93 1010.7
20260510061354 46 239 0.0 0.0 0.00 0.00 0.00 93 1010.7
20260510061219 46 239 0.0 0.0 0.00 0.00 0.00 93 1010.7
20260510061110 46 239 0.0 0.0 0.00 0.00 0.00 93 1010.7
20260510061016 46 239 0.0 0.0 0.00 0.00 0.00 93 1010.7
20260510060923 46 239 0.0 0.0 0.00 0.00 0.00 93 1010.7
20260510060810 46 239 0.0 0.0 0.00 0.00 0.00 93 1010.6
20260510060724 46 239 0.0 0.0 0.00 0.00 0.00 93 1010.6
20260510060614 46 239 0.0 0.0 0.00 0.00 0.00 93 1010.7
20260510060540 46 239 0.0 0.0 0.00 0.00 0.00 93 1010.6
20260510060426 46 239 0.0 0.0 0.00 0.00 0.00 93 1010.7
20260510060339 46 239 0.0 0.0 0.00 0.00 0.00 93 1010.6
20260510060220 46 239 0.0 0.0 0.00 0.00 0.00 93 1010.6
20260510060115 46 239 0.0 0.0 0.00 0.00 0.00 93 1010.6
20260510060042 46 239 0.0 0.0 0.00 0.00 0.00 93 1010.4
20260510060023 46 239 0.0 0.0 0.00 0.00 0.00 93 1010.6
20260510055910 46 239 0.0 0.0 0.00 0.00 0.00 93 1010.7
20260510055822 46 239 0.0 0.0 0.00 0.00 0.00 93 1010.7
20260510055729 46 239 0.0 0.0 0.00 0.00 0.00 93 1010.6
20260510055635 46 239 0.0 0.0 0.00 0.00 0.00 93 1010.6
20260510055510 46 239 0.0 0.0 0.00 0.00 0.00 93 1010.6
20260510055427 46 239 0.0 0.0 0.00 0.00 0.00 92 1010.6
20260510055313 46 239 0.0 0.0 0.00 0.00 0.00 93 1010.5
20260510055219 46 239 0.0 0.0 0.00 0.00 0.00 92 1010.5
20260510055125 46 239 0.0 0.0 0.00 0.00 0.00 93 1010.6
20260510055039 46 239 0.0 0.0 0.00 0.00 0.00 92 1010.5
20260510054923 46 239 0.0 0.0 0.00 0.00 0.00 92 1010.5
20260510054813 46 239 0.0 0.0 0.00 0.00 0.00 92 1010.5
20260510054719 46 239 0.0 0.0 0.00 0.00 0.00 92 1010.5
20260510054633 46 239 0.0 0.0 0.00 0.00 0.00 92 1010.5
20260510054626 46 239 0.0 0.0 0.00 0.00 0.00 92 1010.3
20260510054538 46 239 0.0 0.0 0.00 0.00 0.00 92 1010.6
20260510054443 46 239 0.0 0.0 0.00 0.00 0.00 92 1010.5
20260510054335 46 239 0.0 0.0 0.00 0.00 0.00 92 1010.6
20260510054221 46 239 0.0 0.0 0.00 0.00 0.00 92 1010.6
20260510054112 46 239 0.0 0.0 0.00 0.00 0.00 92 1010.6
20260510054019 47 239 0.0 0.0 0.00 0.00 0.00 92 1010.6
20260510053932 47 239 0.0 0.0 0.00 0.00 0.00 92 1010.6
20260510053818 47 239 0.0 0.0 0.00 0.00 0.00 92 1010.6
20260510053725 47 239 0.0 0.0 0.00 0.00 0.00 92 1010.6
20260510053614 47 239 0.0 0.0 0.00 0.00 0.00 92 1010.6
20260510053520 47 239 0.0 0.0 0.00 0.00 0.00 92 1010.7
20260510053433 47 239 0.0 0.0 0.00 0.00 0.00 92 1010.6
20260510053319 47 239 0.0 0.0 0.00 0.00 0.00 92 1010.7
20260510053225 47 239 0.0 0.0 0.00 0.00 0.00 92 1010.7
20260510053111 47 239 0.0 0.0 0.00 0.00 0.00 92 1010.8
20260510053047 47 239 0.0 0.0 0.00 0.00 0.00 92 1010.8
20260510053011 46 239 0.0 0.0 0.00 0.00 0.00 92 1010.5
20260510052912 47 239 0.0 0.0 0.00 0.00 0.00 92 1010.8
20260510052818 47 239 0.0 0.0 0.00 0.00 0.00 92 1010.8
20260510052725 47 239 0.0 0.0 0.00 0.00 0.00 92 1010.7
20260510052611 47 239 0.0 0.0 0.00 0.00 0.00 92 1010.8
20260510052545 47 239 0.0 0.0 0.00 0.00 0.00 92 1010.8
20260510052414 47 239 0.0 0.0 0.00 0.00 0.00 92 1010.8
20260510052320 47 239 0.0 0.0 0.00 0.00 0.00 92 1010.8
20260510052253 47 239 0.0 0.0 0.00 0.00 0.00 92 1010.8
20260510052119 47 239 0.0 0.0 0.00 0.00 0.00 92 1010.8
20260510052025 47 239 0.0 0.0 0.00 0.00 0.00 92 1010.8
20260510051912 47 239 0.0 0.0 0.00 0.00 0.00 92 1010.8
20260510051822 47 239 0.0 0.0 0.00 0.00 0.00 92 1010.8
20260510051709 47 239 0.0 0.0 0.00 0.00 0.00 92 1010.8
20260510051615 47 239 0.0 0.0 0.00 0.00 0.00 92 1010.8
20260510051528 47 239 0.0 0.0 0.00 0.00 0.00 92 1010.8
20260510051510 47 239 0.0 0.0 0.00 0.00 0.00 92 1010.6
20260510051414 47 239 0.0 0.0 0.00 0.00 0.00 92 1010.8
20260510051324 48 239 0.0 0.0 0.00 0.00 0.00 92 1010.8
20260510051211 48 239 0.0 0.0 0.00 0.00 0.00 92 1010.8
20260510051117 48 239 0.0 0.0 0.00 0.00 0.00 92 1010.8
20260510051031 48 239 0.0 0.0 0.00 0.00 0.00 92 1010.8
20260510050910 48 239 0.0 0.0 0.00 0.00 0.00 92 1010.8
20260510050843 48 239 0.0 0.0 0.00 0.00 0.00 92 1010.8
20260510050713 48 239 0.0 0.0 0.00 0.00 0.00 92 1010.8
20260510050618 48 239 0.0 0.0 0.00 0.00 0.00 92 1010.8
20260510050531 48 239 0.0 0.0 0.00 0.00 0.00 92 1010.8
20260510050417 48 239 0.0 0.0 0.00 0.00 0.00 92 1010.8
20260510050325 48 239 0.0 0.0 0.00 0.00 0.00 92 1010.8
20260510050214 48 239 0.0 0.0 0.00 0.00 0.00 92 1010.8
20260510050122 48 239 0.0 0.0 0.00 0.00 0.00 92 1010.8
20260510050038 47 239 0.0 0.0 0.00 0.00 0.00 92 1010.6
20260510050027 48 239 0.0 0.0 0.00 0.00 0.00 92 1010.8
20260510045913 48 239 0.0 0.0 0.00 0.00 0.00 92 1010.8
20260510045846 48 239 0.0 0.0 0.00 0.00 0.00 92 1010.8
20260510045711 48 239 0.0 0.0 0.00 0.00 0.00 92 1010.8
20260510045621 48 239 0.0 0.0 0.00 0.00 0.00 92 1010.8
20260510045535 48 239 0.0 0.0 0.00 0.00 0.00 92 1010.8
20260510045422 48 239 0.0 0.0 0.00 0.00 0.00 92 1010.9
20260510045347 48 239 0.0 0.0 0.00 0.00 0.00 92 1010.9
20260510045213 48 239 0.0 0.0 0.00 0.00 0.00 92 1010.9
20260510045119 48 239 0.0 0.0 0.00 0.00 0.00 92 1010.8
20260510045037 48 239 0.0 0.0 0.00 0.00 0.00 92 1010.8
20260510044922 48 239 0.0 0.0 0.00 0.00 0.00 92 1010.8
20260510044855 48 239 0.0 0.0 0.00 0.00 0.00 92 1010.8
20260510044720 48 239 0.0 0.0 0.00 0.00 0.00 92 1010.8
20260510044628 48 239 0.0 0.0 0.00 0.00 0.00 92 1010.6
20260510044513 48 239 0.0 0.0 0.00 0.00 0.00 92 1010.8
20260510044424 48 239 0.0 0.0 0.00 0.00 0.00 92 1010.8
20260510044310 48 239 0.0 0.0 0.00 0.00 0.00 91 1010.9
20260510044224 48 239 0.0 0.0 0.00 0.00 0.00 91 1010.9
20260510044129 49 239 0.0 0.0 0.00 0.00 0.00 91 1010.9
20260510044015 49 239 0.0 0.0 0.00 0.00 0.00 91 1010.9
20260510043922 49 239 0.0 0.0 0.00 0.00 0.00 92 1010.9
20260510043812 49 239 0.0 0.0 0.00 0.00 0.00 92 1010.9
20260510043719 49 239 0.0 0.0 0.00 0.00 0.00 92 1010.9
20260510043632 49 239 0.0 0.0 0.00 0.00 0.00 92 1010.9
20260510043519 49 239 0.0 0.0 0.00 0.00 0.00 92 1010.9
20260510043445 49 239 0.0 0.0 0.00 0.00 0.00 92 1010.9
20260510043314 49 239 0.0 0.0 0.00 0.00 0.00 92 1010.9
20260510043221 49 239 0.0 0.0 0.00 0.00 0.00 92 1010.9
20260510043134 49 239 0.0 0.0 0.00 0.00 0.00 92 1010.9
20260510043020 49 239 0.0 0.0 0.00 0.00 0.00 92 1011.0
20260510043003 49 239 0.0 0.0 0.00 0.00 0.00 92 1010.7
20260510042926 49 239 0.0 0.0 0.00 0.00 0.00 92 1010.9
20260510042812 49 239 0.0 0.0 0.00 0.00 0.00 92 1010.9
20260510042721 49 239 0.0 0.0 0.00 0.00 0.00 92 1010.9
20260510042634 49 239 0.0 0.0 0.00 0.00 0.00 91 1010.9
20260510042521 49 239 0.0 0.0 0.00 0.00 0.00 91 1010.9
20260510042427 49 239 0.0 0.0 0.00 0.00 0.00 91 1010.9
20260510042313 49 239 0.0 0.0 0.00 0.00 0.00 91 1010.8
20260510042224 49 239 0.0 0.0 0.00 0.00 0.00 91 1010.8
20260510042110 49 239 0.0 0.0 0.00 0.00 0.00 91 1010.8
20260510042017 49 239 0.0 0.0 0.00 0.00 0.00 91 1010.8
20260510041929 49 239 0.0 0.0 0.00 0.00 0.00 92 1010.8
20260510041836 50 239 0.0 0.0 0.00 0.00 0.00 92 1010.9
20260510041748 50 239 0.0 0.0 0.00 0.00 0.00 92 1010.8
20260510041633 50 239 0.0 0.0 0.00 0.00 0.00 92 1010.9
20260510041548 49 239 0.0 0.0 0.00 0.00 0.00 92 1010.6
20260510041521 50 239 0.0 0.0 0.00 0.00 0.00 92 1010.9
20260510041436 50 239 0.0 0.0 0.00 0.00 0.00 92 1010.8
20260510041339 50 239 0.0 0.0 0.00 0.00 0.00 92 1010.8
20260510041252 50 239 0.0 0.0 0.00 0.00 0.00 92 1010.8
20260510041116 50 239 0.0 0.0 0.00 0.00 0.00 92 1010.8
20260510041022 50 239 0.0 0.0 0.00 0.00 0.00 92 1010.8
20260510040913 50 239 0.0 0.0 0.00 0.00 0.00 92 1010.8
20260510040820 50 239 0.0 0.0 0.00 0.00 0.00 92 1010.8
20260510040733 50 239 0.0 0.0 0.00 0.00 0.00 92 1010.8
20260510040621 50 239 0.0 0.0 0.00 0.00 0.00 91 1010.8
20260510040527 50 239 0.0 0.0 0.00 0.00 0.00 91 1010.8
20260510040412 50 239 0.0 0.0 0.00 0.00 0.00 91 1010.8
20260510040322 50 239 0.0 0.0 0.00 0.00 0.00 91 1010.8
20260510040209 50 239 0.0 0.0 0.00 0.00 0.00 91 1010.8
20260510040142 50 239 0.0 0.0 0.00 0.00 0.00 91 1010.8
20260510040112 50 239 0.0 0.0 0.00 0.00 0.00 91 1010.5
20260510040027 50 239 0.0 0.0 0.00 0.00 0.00 91 1010.7
20260510035914 50 239 0.0 0.0 0.00 0.00 0.00 91 1010.8
20260510035820 50 239 0.0 0.0 0.00 0.00 0.00 91 1010.8
20260510035737 50 239 0.0 0.0 0.00 0.00 0.00 91 1010.8
20260510035622 50 239 0.0 0.0 0.00 0.00 0.00 91 1010.8
20260510035528 50 239 0.0 0.0 0.00 0.00 0.00 91 1010.8
20260510035436 50 239 0.0 0.0 0.00 0.00 0.00 91 1010.8
20260510035328 50 239 0.0 0.0 0.00 0.00 0.00 91 1010.9
20260510035214 50 239 0.0 0.0 0.00 0.00 0.00 91 1010.9
20260510035124 50 239 0.0 0.0 0.00 0.00 0.00 91 1010.9
20260510035010 50 239 0.0 0.0 0.00 0.00 0.00 91 1010.9
20260510034943 51 239 0.0 0.0 0.00 0.00 0.00 91 1010.9
20260510034826 51 239 0.0 0.0 0.00 0.00 0.00 91 1010.9
20260510034738 51 239 0.0 0.0 0.00 0.00 0.00 91 1010.9
20260510034614 51 239 0.0 0.0 0.00 0.00 0.00 91 1010.8
20260510034606 50 239 0.0 0.0 0.00 0.00 0.00 91 1010.6
20260510034523 51 239 0.0 0.0 0.00 0.00 0.00 91 1010.8
20260510034409 51 239 0.0 0.0 0.00 0.00 0.00 91 1010.8
20260510034316 51 239 0.0 0.0 0.00 0.00 0.00 91 1010.8
20260510034222 51 239 0.0 0.0 0.00 0.00 0.00 91 1010.8
20260510034109 51 239 0.0 0.0 0.00 0.00 0.00 91 1010.8
20260510034022 51 239 0.0 0.0 0.00 0.00 0.00 91 1010.8
20260510033912 51 239 0.0 0.0 0.00 0.00 0.00 91 1010.8
20260510033839 51 239 0.0 0.0 0.00 0.00 0.00 91 1010.8
20260510033731 51 239 0.0 0.0 0.00 0.00 0.00 91 1010.8
20260510033612 51 239 0.0 0.0 0.00 0.00 0.00 91 1010.8
20260510033545 51 239 0.0 0.0 0.00 0.00 0.00 91 1010.8
20260510033410 51 239 0.0 0.0 0.00 0.00 0.00 91 1010.7
20260510033321 51 239 0.0 0.0 0.00 0.00 0.00 91 1010.7
20260510033234 51 239 0.0 0.0 0.00 0.00 0.00 91 1010.7
20260510033119 51 239 0.0 0.0 0.00 0.00 0.00 91 1010.8
20260510033108 51 239 0.0 0.0 0.00 0.00 0.00 91 1010.5
20260510033026 51 239 0.0 0.0 0.00 0.00 0.00 91 1010.7
20260510032909 51 239 0.0 0.0 0.00 0.00 0.00 91 1010.6
20260510032844 51 239 0.0 0.0 0.00 0.00 0.00 91 1010.6
20260510032731 51 239 0.0 0.0 0.00 0.00 0.00 90 1010.7
20260510032627 51 239 0.0 0.0 0.00 0.00 0.00 90 1010.7
20260510032511 51 239 0.0 0.0 0.00 0.00 0.00 90 1010.6
20260510032418 51 239 0.0 0.0 0.00 0.00 0.00 91 1010.6
20260510032331 51 239 0.0 0.0 0.00 0.00 0.00 90 1010.6
20260510032217 51 239 0.0 0.0 0.00 0.00 0.00 90 1010.6
20260510032128 52 239 0.0 0.0 0.00 0.00 0.00 90 1010.6
20260510032012 52 239 0.0 0.0 0.00 0.00 0.00 90 1010.6
20260510031925 52 239 0.0 0.0 0.00 0.00 0.00 90 1010.6
20260510031831 52 239 0.0 0.0 0.00 0.00 0.00 90 1010.6
20260510031719 52 239 0.0 0.0 0.00 0.00 0.00 90 1010.6
20260510031628 52 239 0.0 0.0 0.00 0.00 0.00 90 1010.6
20260510031546 51 239 0.0 0.0 0.00 0.00 0.00 90 1010.4
20260510031515 52 239 0.0 0.0 0.00 0.00 0.00 90 1010.6
20260510031420 52 239 0.0 0.0 0.00 0.00 0.00 90 1010.6
20260510031333 52 239 0.0 0.0 0.00 0.00 0.00 90 1010.6
20260510031220 52 239 0.0 0.0 0.00 0.00 0.00 90 1010.6
20260510031111 52 239 0.0 0.0 0.00 0.00 0.00 90 1010.6
20260510031018 52 239 0.0 0.0 0.00 0.00 0.00 90 1010.6
20260510030918 52 239 0.0 0.0 0.00 0.00 0.00 90 1010.6
20260510030851 52 239 0.0 0.0 0.00 0.00 0.00 90 1010.5
20260510030717 52 239 0.0 0.0 0.00 0.00 0.00 90 1010.5
20260510030624 52 239 0.0 0.0 0.00 0.00 0.00 90 1010.5
20260510030515 52 239 0.0 0.0 0.00 0.00 0.00 90 1010.4
20260510030448 52 239 0.0 0.0 0.00 0.00 0.00 90 1010.4
20260510030332 53 239 0.0 0.0 0.00 0.00 0.00 90 1010.5
20260510030218 53 239 0.0 0.0 0.00 0.00 0.00 90 1010.5
20260510030132 53 239 0.0 0.0 0.00 0.00 0.00 90 1010.4
20260510030018 53 239 0.0 0.0 0.00 0.00 0.00 90 1010.4
20260510030010 52 239 0.0 0.0 0.00 0.00 0.00 90 1010.2
20260510025943 53 239 0.0 0.0 0.00 0.00 0.00 90 1010.5
20260510025812 53 239 0.0 0.0 0.00 0.00 0.00 90 1010.4
20260510025745 53 239 0.0 0.0 0.00 0.00 0.00 90 1010.4
20260510025611 53 239 0.0 0.0 0.00 0.00 0.00 90 1010.4
20260510025518 53 239 0.0 0.0 0.00 0.00 0.00 90 1010.4
20260510025424 53 239 0.0 0.0 0.00 0.00 0.00 90 1010.3
20260510025310 53 239 0.0 0.0 0.00 0.00 0.00 90 1010.3
20260510025227 53 239 0.0 0.0 0.00 0.00 0.00 90 1010.3
20260510025123 53 239 0.0 0.0 0.00 0.00 0.00 90 1010.2
20260510025052 53 239 0.0 0.0 0.00 0.00 0.00 90 1010.2
20260510024937 53 239 0.0 0.0 0.00 0.00 0.00 90 1010.2
20260510024823 53 239 0.0 0.0 0.00 0.00 0.00 90 1010.2
20260510024709 53 239 0.0 0.0 0.00 0.00 0.00 90 1010.2
20260510024620 53 239 0.0 0.0 0.00 0.00 0.00 90 1010.2
20260510024533 53 239 0.0 0.0 0.00 0.00 0.00 90 1010.2
20260510024517 53 239 0.0 0.0 0.00 0.00 0.00 90 1010.0
20260510024419 54 239 0.0 0.0 0.00 0.00 0.00 90 1010.2
20260510024326 54 239 0.0 0.0 0.00 0.00 0.00 90 1010.2
20260510024212 54 239 0.0 0.0 0.00 0.00 0.00 90 1010.3
20260510024119 54 239 0.0 0.0 0.00 0.00 0.00 90 1010.3
20260510024036 54 239 0.0 0.0 0.00 0.00 0.00 90 1010.3
20260510023916 54 239 0.0 0.0 0.00 0.00 0.00 90 1010.3
20260510023829 54 239 0.0 0.0 0.00 0.00 0.00 90 1010.3
20260510023735 54 239 0.0 0.0 0.00 0.00 0.00 90 1010.2
20260510023621 54 239 0.0 0.0 0.00 0.00 0.00 90 1010.2
20260510023531 54 239 0.0 0.0 0.00 0.00 0.00 90 1010.2
20260510023420 54 239 0.0 0.0 0.00 0.00 0.00 90 1010.2
20260510023327 54 239 0.0 0.0 0.00 0.00 0.00 90 1010.1
20260510023213 54 239 0.0 0.0 0.00 0.00 0.00 90 1010.2
20260510023148 54 239 0.0 0.0 0.00 0.00 0.00 89 1010.2
20260510023031 54 239 0.0 0.0 0.00 0.00 0.00 89 1010.2
20260510023008 53 239 0.0 0.0 0.00 0.00 0.00 89 1009.9
20260510022921 54 239 0.0 0.0 0.00 0.00 0.00 89 1010.2
20260510022829 54 239 0.0 0.0 0.00 0.00 0.00 89 1010.2
20260510022713 54 239 0.0 0.0 0.00 0.00 0.00 89 1010.1
20260510022620 54 239 0.0 0.0 0.00 0.00 0.00 89 1010.1
20260510022534 54 239 0.0 0.0 0.00 0.00 0.00 89 1010.1
20260510022440 54 239 0.0 0.0 0.00 0.00 0.00 89 1010.1
20260510022309 54 239 0.0 0.0 0.00 0.00 0.00 89 1010.1
20260510022222 54 239 0.0 0.0 0.00 0.00 0.00 89 1010.1
20260510022148 54 239 0.0 0.0 0.00 0.00 0.00 89 1010.1
20260510022015 54 239 0.0 0.0 0.00 0.00 0.00 89 1010.1
20260510021921 55 239 0.0 0.0 0.00 0.00 0.00 88 1010.1
20260510021834 55 239 0.0 0.0 0.00 0.00 0.00 89 1010.1
20260510021725 55 239 0.0 0.0 0.00 0.00 0.00 88 1010.0
20260510021617 55 239 0.0 0.0 0.00 0.00 0.00 88 1010.0
20260510021543 54 239 0.0 0.0 0.00 0.00 0.00 88 1009.7
20260510021523 55 239 0.0 0.0 0.00 0.00 0.00 88 1010.0
20260510021436 55 239 0.0 0.0 0.00 0.00 0.00 88 1009.9
20260510021319 55 239 0.0 0.0 0.00 0.00 0.00 88 1010.0
20260510021222 55 239 0.0 0.0 0.00 0.00 0.00 88 1010.0
20260510021128 55 239 0.0 0.0 0.00 0.00 0.00 88 1010.0
20260510021015 55 239 0.0 0.0 0.00 0.00 0.00 88 1010.0
20260510020917 55 239 0.0 0.0 0.00 0.00 0.00 88 1009.9
20260510020829 55 239 0.0 0.0 0.00 0.00 0.00 88 1009.9
20260510020716 55 239 0.0 0.0 0.00 0.00 0.00 88 1009.9
20260510020622 55 239 0.0 0.0 0.00 0.00 0.00 88 1009.9
20260510020528 55 239 0.0 0.0 0.00 0.00 0.00 88 1009.9
20260510020410 56 239 0.0 0.0 0.00 0.00 0.00 88 1009.8
20260510020316 56 239 0.0 0.0 0.00 0.00 0.00 88 1009.8
20260510020229 56 239 0.0 0.0 0.00 0.00 0.00 88 1009.8
20260510020128 56 239 0.0 0.0 0.00 0.00 0.00 88 1009.8
20260510020051 56 239 0.0 0.0 0.00 0.00 0.00 88 1009.7
20260510020011 55 239 0.0 0.0 0.00 0.00 0.00 88 1009.4
20260510015920 56 239 0.0 0.0 0.00 0.00 0.00 88 1009.7
20260510015827 56 239 0.0 0.0 0.00 0.00 0.00 88 1009.6
20260510015800 56 239 0.0 0.0 0.00 0.00 0.00 88 1009.6
20260510015641 56 239 0.0 0.0 0.00 0.00 0.00 88 1009.5
20260510015527 56 239 0.0 0.0 0.00 0.00 0.00 88 1009.6
20260510015413 56 239 0.0 0.0 0.00 0.00 0.00 88 1009.5
20260510015330 56 239 0.0 0.0 0.00 0.00 0.00 88 1009.5
20260510015235 56 239 0.0 0.0 0.00 0.00 0.00 88 1009.5
20260510015119 56 239 0.0 0.0 0.00 0.00 0.00 88 1009.5
20260510015025 56 239 0.0 0.0 0.00 0.00 0.00 88 1009.5
20260510014912 56 239 0.0 0.0 0.00 0.00 0.00 88 1009.4
20260510014818 56 239 0.0 0.0 0.00 0.00 0.00 88 1009.4
20260510014735 56 239 0.0 0.0 0.00 0.00 0.00 88 1009.5
20260510014621 56 239 0.0 0.0 0.00 0.00 0.00 87 1009.4
20260510014527 57 239 0.0 0.0 0.00 0.00 0.00 87 1009.4
20260510014501 56 239 0.0 0.0 0.00 0.00 0.00 87 1009.0
20260510014414 57 239 0.0 0.0 0.00 0.00 0.00 87 1009.3
20260510014316 57 239 0.0 0.0 0.00 0.00 0.00 87 1009.4
20260510014226 57 239 0.0 0.0 0.00 0.00 0.00 87 1009.4
20260510014109 57 239 0.0 0.0 0.00 0.00 0.00 87 1009.4
20260510014023 57 239 0.0 0.0 0.00 0.00 0.00 87 1009.4
20260510013926 57 239 0.0 0.0 0.00 0.00 0.00 87 1009.4
20260510013850 57 239 0.0 0.0 0.00 0.00 0.00 87 1009.4
20260510013814 57 239 0.0 0.0 0.00 0.00 0.00 87 1009.4
20260510013637 57 239 0.0 0.0 0.00 0.00 0.00 87 1009.4
20260510013522 57 239 0.0 0.0 0.00 0.00 0.00 87 1009.3
20260510013419 57 239 0.0 0.0 0.00 0.00 0.00 86 1009.3
20260510013323 57 239 0.0 0.0 0.00 0.00 0.00 87 1009.3
20260510013229 58 239 0.0 0.0 0.00 0.00 0.00 87 1009.3
20260510013116 58 239 0.0 0.0 0.00 0.00 0.00 86 1009.2
20260510013055 57 239 0.0 0.0 0.00 0.00 0.00 86 1009.0
20260510013017 58 239 0.0 0.0 0.00 0.00 0.00 86 1009.2
20260510012922 58 239 0.0 0.0 0.00 0.00 0.00 86 1009.2
20260510012832 58 239 0.0 0.0 0.00 0.00 0.00 86 1009.1
20260510012718 58 239 0.0 0.0 0.00 0.00 0.00 86 1009.1
20260510012624 58 239 0.0 0.0 0.00 0.00 0.00 86 1009.1
20260510012521 58 239 0.0 0.0 0.00 0.00 0.00 86 1009.1
20260510012425 58 239 0.0 0.0 0.00 0.00 0.00 86 1009.1
20260510012327 58 239 0.0 0.0 0.00 0.00 0.00 86 1009.1
20260510012233 58 239 0.0 0.0 0.00 0.00 0.00 86 1009.0
20260510012119 58 239 0.0 0.0 0.00 0.00 0.00 85 1009.0
20260510012032 58 239 0.0 0.0 0.00 0.00 0.00 85 1009.1
20260510011938 58 239 0.0 0.0 0.00 0.00 0.00 85 1009.0
20260510011819 58 239 0.0 0.0 0.00 0.00 0.00 85 1009.0
20260510011732 59 239 0.0 0.0 0.00 0.00 0.00 85 1009.0
20260510011615 59 239 0.0 0.0 0.00 0.00 0.00 85 1008.9
20260510011605 58 239 0.0 0.0 0.00 0.00 0.00 85 1008.7
20260510011521 59 239 0.0 0.0 0.00 0.00 0.00 85 1008.9
20260510011456 59 239 0.0 0.0 0.00 0.00 0.00 85 1008.9
20260510011315 59 239 0.0 0.0 0.00 0.00 0.00 85 1008.9
20260510011228 59 239 0.0 0.0 0.00 0.00 0.00 84 1008.9
20260510011135 59 239 0.0 0.0 0.00 0.00 0.00 84 1009.0
20260510011015 59 239 0.0 0.0 0.00 0.00 0.00 85 1008.9
20260510010945 59 239 0.0 0.0 0.00 0.00 0.00 85 1008.9
20260510010915 59 239 0.0 0.0 0.00 0.00 0.00 84 1008.9
20260510010710 59 239 0.0 0.0 0.00 0.00 0.00 84 1008.9
20260510010616 60 239 0.0 0.0 0.00 0.00 0.00 83 1008.9
20260510010529 60 239 0.0 0.0 0.00 0.00 0.00 83 1008.9
20260510010413 60 239 0.0 0.0 0.00 0.00 0.00 83 1008.8
20260510010322 60 239 0.0 0.0 0.00 0.00 0.00 83 1008.8
20260510010228 60 239 0.0 0.0 0.00 0.00 0.00 83 1008.8
20260510010125 60 239 0.0 0.0 0.00 0.00 0.00 83 1008.8
20260510010024 60 239 0.0 0.0 0.00 0.00 0.00 83 1008.5
20260510010009 60 239 0.0 0.0 0.00 0.00 0.00 83 1008.7
20260510005923 60 239 0.0 0.0 0.00 0.00 0.00 83 1008.7
20260510005813 60 239 0.0 0.0 0.00 0.00 0.00 83 1008.6
20260510005715 60 239 0.0 0.0 0.00 0.00 0.00 83 1008.6
20260510005622 60 239 0.0 0.0 0.00 0.00 0.00 83 1008.6
20260510005536 61 239 0.0 0.0 0.00 0.00 0.00 83 1008.6
20260510005414 61 239 0.0 0.0 0.00 0.00 0.00 81 1008.6
20260510005327 61 239 0.0 0.0 0.00 0.00 0.00 81 1008.6
20260510005232 61 239 0.0 0.0 0.00 0.00 0.00 81 1008.5
20260510005118 61 239 0.0 0.0 0.00 0.00 0.00 81 1008.5
20260510005031 61 239 0.0 0.0 0.00 0.00 0.00 80 1008.5
20260510004917 61 239 0.0 0.0 0.00 0.00 0.00 81 1008.5
20260510004824 61 239 0.0 0.0 0.00 0.00 0.00 81 1008.5
20260510004710 61 239 0.0 0.0 0.00 0.00 0.00 81 1008.5
20260510004620 61 239 0.0 0.0 0.00 0.00 0.00 81 1008.5
20260510004530 62 239 0.0 0.0 0.00 0.00 0.00 81 1008.5
20260510004522 61 239 0.0 0.0 0.00 0.00 0.00 81 1008.2
20260510004432 62 239 0.0 0.0 0.00 0.00 0.00 81 1008.4
20260510004319 62 239 0.0 0.0 0.00 0.00 0.00 80 1008.4
20260510004225 62 239 0.0 0.0 0.00 0.00 0.00 80 1008.3
20260510004116 62 239 0.0 0.0 0.00 0.00 0.00 78 1008.3
20260510004023 62 239 0.0 0.0 0.00 0.00 0.00 78 1008.3
20260510003936 62 239 0.0 0.0 0.00 0.00 0.00 79 1008.3
20260510003842 62 239 0.0 0.0 0.00 0.00 0.00 79 1008.3
20260510003733 62 239 0.0 0.0 0.00 0.00 0.00 78 1008.2
20260510003611 63 239 0.0 0.0 0.00 0.00 0.00 77 1008.3
20260510003524 63 239 0.0 0.0 0.00 0.00 0.00 77 1008.3
20260510003414 63 239 0.0 0.0 0.00 0.00 0.00 78 1008.3
20260510003320 63 239 0.0 0.0 0.00 0.00 0.00 78 1008.3
20260510003227 63 239 0.0 0.0 0.00 0.00 0.00 78 1008.2
20260510003114 63 239 0.0 0.0 0.00 0.00 0.00 78 1008.2
20260510003027 63 239 0.0 0.0 0.00 0.00 0.00 78 1008.2
20260510003023 63 239 0.0 0.0 0.00 0.00 0.00 76 1007.9
20260510002917 63 239 0.0 0.0 0.00 0.00 0.00 75 1008.2
20260510002824 63 239 0.0 0.0 0.00 0.00 0.00 75 1008.1
20260510002710 64 239 0.0 0.0 0.00 0.00 0.00 75 1008.1
20260510002618 64 239 0.0 0.0 0.00 0.00 0.00 76 1008.1
20260510002518 64 239 0.0 0.0 0.00 0.00 0.00 76 1008.2
20260510002428 64 239 0.0 0.0 0.00 0.00 0.00 76 1008.2
20260510002319 64 239 0.0 0.0 0.00 0.00 0.00 75 1008.1
20260510002245 64 239 0.0 0.0 0.00 0.00 0.00 75 1008.1
20260510002111 64 239 0.0 0.0 0.00 0.00 0.00 75 1008.1
20260510002023 64 239 0.0 0.0 0.00 0.00 0.00 75 1008.1
20260510001931 64 239 0.0 0.0 0.00 0.00 0.00 74 1008.0
20260510001838 65 239 0.0 0.0 0.00 0.00 0.00 73 1008.0
20260510001727 65 239 0.0 0.0 0.00 0.00 0.00 74 1008.0
20260510001614 65 239 0.0 0.0 0.00 0.00 0.00 74 1008.0
20260510001526 65 239 0.0 0.0 0.00 0.00 0.00 74 1008.0
20260510001508 64 239 0.0 0.0 0.00 0.00 0.00 74 1007.7
20260510001412 65 239 0.0 0.0 0.00 0.00 0.00 74 1007.9
20260510001320 65 239 0.0 0.0 0.00 0.00 0.00 74 1007.9
20260510001252 65 239 0.0 0.0 0.00 0.00 0.00 73 1007.9
20260510001118 65 239 0.0 0.0 0.00 0.00 0.00 72 1007.9
20260510001022 65 239 0.0 0.0 0.00 0.00 0.00 71 1007.9
20260510000923 66 239 0.0 0.0 0.00 0.00 0.00 71 1007.9
20260510000825 66 239 0.0 0.0 0.00 0.00 0.00 72 1007.9
20260510000734 66 239 0.0 0.0 0.00 0.00 0.00 73 1007.8
20260510000622 66 239 0.0 0.0 0.00 0.00 0.00 74 1007.8
20260510000527 66 239 0.0 0.0 0.00 0.00 0.00 74 1007.8
20260510000411 66 239 0.0 0.0 0.00 0.00 0.00 73 1007.8
20260510000342 66 239 0.0 0.0 0.00 0.00 0.00 72 1007.8
20260510000238 67 239 0.0 0.0 0.00 0.00 0.00 72 1007.8
20260510000122 67 239 0.0 0.0 0.00 0.00 0.00 72 1007.8
20260510000038 66 239 0.0 0.0 0.00 0.00 0.00 69 1007.5
20260510000012 67 239 0.0 0.0 0.00 0.00 0.00 68 1007.8
20260509235918 67 239 0.0 0.0 0.00 0.00 0.00 69 1007.8
20260509235831 67 239 0.0 0.0 0.00 0.00 0.00 69 1007.8
20260509235734 67 239 0.0 0.0 0.00 0.00 0.00 69 1007.7
20260509235620 67 239 0.0 0.0 0.00 0.00 0.00 69 1007.7
20260509235533 68 239 0.0 0.0 0.00 0.00 0.00 68 1007.7
20260509235416 68 239 0.0 0.0 0.00 0.00 0.00 68 1007.7
20260509235327 68 239 0.0 0.0 0.00 0.00 0.00 69 1007.8
20260509235240 68 239 0.0 0.0 0.00 0.00 0.00 67 1007.8
20260509235126 68 239 0.0 0.0 0.00 0.00 0.00 66 1007.7
20260509235013 68 239 0.0 0.0 0.00 0.00 0.00 68 1007.8
20260509234919 68 239 0.0 0.0 0.00 0.00 0.00 68 1007.8
20260509234810 68 239 0.0 0.0 0.00 0.00 0.00 68 1007.8
20260509234717 68 239 0.0 0.0 0.00 0.00 0.00 65 1007.8
20260509234630 69 239 0.0 0.0 0.00 0.00 0.00 65 1007.8
20260509234613 68 239 0.0 0.0 0.00 0.00 0.00 65 1007.5
20260509234515 69 239 0.0 0.0 0.00 0.00 0.00 65 1007.8
20260509234421 69 239 0.0 0.0 0.00 0.00 0.00 66 1007.8
20260509234334 69 239 0.0 0.0 0.00 0.00 0.00 64 1007.8
20260509234225 69 296 0.0 0.0 0.00 0.00 0.00 64 1007.8
20260509234113 69 296 0.0 0.0 0.00 0.00 0.00 66 1007.8
20260509234016 70 296 0.0 0.0 0.00 0.00 0.00 64 1007.8
20260509233942 70 296 0.0 0.0 0.00 0.00 0.00 65 1007.8
20260509233834 70 296 0.0 0.0 0.00 0.00 0.00 65 1007.8
20260509233740 70 296 0.0 0.0 0.00 0.00 0.00 61 1007.8
20260509233609 70 296 0.0 0.0 0.00 0.00 0.00 61 1007.8
20260509233515 70 296 0.0 0.0 0.00 0.00 0.00 61 1007.8
20260509233425 70 296 0.0 0.0 0.00 0.00 0.00 62 1007.8
20260509233311 70 296 0.0 0.0 0.00 0.00 0.00 60 1007.7
20260509233218 70 296 0.0 0.0 0.00 0.00 0.00 61 1007.7
20260509233121 70 296 0.0 0.0 0.00 0.00 0.00 60 1007.7
20260509233038 70 296 0.0 0.0 0.00 0.00 0.00 60 1007.4
20260509233011 71 296 0.0 0.0 0.00 0.00 0.00 60 1007.7
20260509232918 71 296 0.0 0.0 0.00 0.00 0.00 60 1007.7
20260509232831 71 298 0.0 0.0 0.00 0.00 0.00 60 1007.7
20260509232718 71 298 0.0 0.0 0.00 0.00 0.00 61 1007.7
20260509232644 71 300 0.0 0.0 0.00 0.00 0.00 59 1007.7
20260509232549 71 297 0.0 0.0 0.00 0.00 0.00 59 1007.7
20260509232416 71 297 0.0 0.0 0.00 0.00 0.00 60 1007.7
20260509232322 71 297 0.0 0.0 0.00 0.00 0.00 59 1007.7
20260509232235 71 297 0.0 0.0 0.00 0.00 0.00 61 1007.7
20260509232117 72 297 0.0 0.0 0.00 0.00 0.00 57 1007.7
20260509232050 72 297 0.0 0.0 0.00 0.00 0.00 59 1007.7
20260509231931 72 297 0.0 0.0 0.00 0.00 0.00 58 1007.7
20260509231834 72 297 0.0 0.0 0.00 0.00 0.00 58 1007.7
20260509231723 72 297 0.0 0.0 0.00 0.00 0.00 59 1007.7
20260509231609 72 297 0.0 0.0 0.00 0.00 0.00 60 1007.6
20260509231522 72 308 0.0 2.0 0.00 0.00 0.00 56 1007.6
20260509231505 71 308 0.0 2.0 0.00 0.00 0.00 57 1007.3
20260509231427 72 324 0.0 2.0 0.00 0.00 0.00 57 1007.6
20260509231313 72 40 0.0 2.0 0.00 0.00 0.00 57 1007.6
20260509231220 72 31 0.0 2.0 0.00 0.00 0.00 59 1007.6
20260509231110 72 13 0.0 2.0 0.00 0.00 0.00 57 1007.6
20260509231017 72 226 0.0 2.0 0.00 0.00 0.00 58 1007.6
20260509230930 72 262 0.0 2.0 0.00 0.00 0.00 58 1007.6
20260509230813 72 262 0.0 2.0 0.00 0.00 0.00 56 1007.6
20260509230721 72 268 0.0 2.0 0.00 0.00 0.00 55 1007.6
20260509230623 73 53 0.0 0.0 0.00 0.00 0.00 56 1007.6
20260509230510 73 33 0.0 0.0 0.00 0.00 0.00 57 1007.6
20260509230423 73 20 0.0 0.0 0.00 0.00 0.00 55 1007.6
20260509230310 73 196 0.0 0.0 0.00 0.00 0.00 55 1007.6
20260509230216 73 341 0.0 0.0 0.00 0.00 0.00 57 1007.6
20260509230121 73 341 0.0 0.0 0.00 0.00 0.00 56 1007.6
20260509230044 73 31 0.0 0.0 0.00 0.00 0.00 55 1007.3
20260509230011 73 31 0.0 0.0 0.00 0.00 0.00 55 1007.6
20260509225945 73 38 0.0 0.0 0.00 0.00 0.00 56 1007.6
20260509225831 73 38 0.0 0.0 0.00 0.00 0.00 55 1007.6
20260509225717 73 63 0.0 0.0 0.00 0.00 0.00 56 1007.6
20260509225630 73 41 0.0 0.0 0.00 0.00 0.00 56 1007.6
20260509225517 74 329 0.0 0.0 0.00 0.00 0.00 54 1007.7
20260509225428 74 329 0.0 0.0 0.00 0.00 0.00 54 1007.7
20260509225334 74 329 0.0 1.0 0.00 0.00 0.00 56 1007.6
20260509225220 74 330 0.0 1.0 0.00 0.00 0.00 52 1007.6
20260509225133 74 231 0.0 1.0 0.00 0.00 0.00 52 1007.6
20260509225018 74 33 0.0 1.0 0.00 0.00 0.00 53 1007.6
20260509224925 74 43 0.0 1.0 0.00 0.00 0.00 55 1007.6
20260509224815 75 43 0.0 4.0 0.00 0.00 0.00 53 1007.6
20260509224748 75 49 0.0 4.0 0.00 0.00 0.00 55 1007.6
20260509224614 75 43 0.0 4.0 0.00 0.00 0.00 51 1007.6
20260509224541 74 52 0.0 4.0 0.00 0.00 0.00 51 1007.3
20260509224518 75 23 0.0 4.0 0.00 0.00 0.00 51 1007.6
20260509224447 75 117 0.0 4.0 0.00 0.00 0.00 51 1007.6
20260509224326 75 121 0.0 4.0 0.00 0.00 0.00 51 1007.7
20260509224232 75 292 0.0 4.0 0.00 0.00 0.00 52 1007.7
20260509224148 75 292 0.0 4.0 0.00 0.00 0.00 50 1007.7
20260509224014 75 304 0.0 8.0 0.00 0.00 0.00 51 1007.7
20260509223920 75 319 0.0 8.0 0.00 0.00 0.00 51 1007.7
20260509223833 76 306 0.0 8.0 0.00 0.00 0.00 51 1007.6
20260509223720 76 289 0.0 8.0 0.00 0.00 0.00 50 1007.6
20260509223609 76 74 0.0 8.0 0.00 0.00 0.00 49 1007.6
20260509223516 76 10 0.0 8.0 0.00 0.00 0.00 50 1007.6
20260509223423 76 36 0.0 8.0 0.00 0.00 0.00 49 1007.6
20260509223337 76 300 1.0 8.0 0.00 0.00 0.00 49 1007.6
20260509223241 76 313 1.0 8.0 0.00 0.00 0.00 48 1007.6
20260509223123 76 313 0.0 5.0 0.00 0.00 0.00 50 1007.6
20260509223035 76 329 0.0 3.0 0.00 0.00 0.00 49 1007.6
20260509223014 75 40 0.0 3.0 0.00 0.00 0.00 49 1007.3
20260509222941 76 62 0.0 3.0 0.00 0.00 0.00 49 1007.6
20260509222812 76 329 0.0 3.0 0.00 0.00 0.00 51 1007.5
20260509222715 76 290 0.0 3.0 0.00 0.00 0.00 48 1007.6
20260509222627 76 320 0.0 3.0 0.00 0.00 0.00 48 1007.6
20260509222513 76 72 0.0 3.0 0.00 0.00 0.00 48 1007.6
20260509222419 76 99 0.0 3.0 0.00 0.00 0.00 48 1007.6
20260509222321 76 89 0.0 3.0 0.00 0.00 0.00 49 1007.6
20260509222233 76 187 0.0 3.0 0.00 0.00 0.00 47 1007.6
20260509222112 76 17 0.0 1.0 0.00 0.00 0.00 48 1007.6
20260509222023 76 333 0.0 1.0 0.00 0.00 0.00 48 1007.6
20260509221909 76 55 0.0 1.0 0.00 0.00 0.00 47 1007.5
20260509221836 76 5 0.0 1.0 0.00 0.00 0.00 49 1007.5
20260509221732 76 63 0.0 1.0 0.00 0.00 0.00 48 1007.5
20260509221618 76 134 0.0 1.0 0.00 0.00 0.00 47 1007.5
20260509221605 76 105 0.0 1.0 0.00 0.00 0.00 48 1007.2
20260509221524 76 259 0.0 1.0 0.00 0.00 0.00 47 1007.5
20260509221412 76 314 0.0 0.0 0.00 0.00 0.00 48 1007.5
20260509221316 76 10 0.0 2.0 0.00 0.00 0.00 51 1007.5
20260509221235 76 304 0.0 2.0 0.00 0.00 0.00 50 1007.5
20260509221139 76 19 0.0 3.0 0.00 0.00 0.00 49 1007.5
20260509221039 76 19 0.0 3.0 0.00 0.00 0.00 47 1007.5
20260509220925 76 53 0.0 8.0 0.00 0.00 0.00 48 1007.5
20260509220811 76 107 0.0 8.0 0.00 0.00 0.00 48 1007.5
20260509220744 76 355 0.0 8.0 0.00 0.00 0.00 48 1007.5
20260509220614 76 26 0.0 8.0 0.00 0.00 0.00 47 1007.5
20260509220520 76 355 0.0 8.0 0.00 0.00 0.00 47 1007.5
20260509220432 76 64 0.0 8.0 0.00 0.00 0.00 48 1007.5
20260509220316 76 277 1.0 8.0 0.00 0.00 0.00 48 1007.6
20260509220221 76 303 2.0 8.0 0.00 0.00 0.00 47 1007.6
20260509220128 76 5 1.0 8.0 0.00 0.00 0.00 48 1007.6
20260509220049 75 92 0.0 7.0 0.00 0.00 0.00 48 1007.2
20260509220011 76 349 0.0 4.0 0.00 0.00 0.00 48 1007.6
20260509215917 75 15 0.0 1.0 0.00 0.00 0.00 47 1007.6
20260509215830 75 34 0.0 1.0 0.00 0.00 0.00 48 1007.6
20260509215730 75 34 0.0 1.0 0.00 0.00 0.00 51 1007.6
20260509215614 75 9 0.0 1.0 0.00 0.00 0.00 49 1007.5
20260509215544 75 334 0.0 1.0 0.00 0.00 0.00 47 1007.5
20260509215431 75 32 0.0 3.0 0.00 0.00 0.00 48 1007.5
20260509215343 75 17 0.0 3.0 0.00 0.00 0.00 50 1007.5
20260509215210 75 62 0.0 3.0 0.00 0.00 0.00 47 1007.6
20260509215115 75 26 0.0 3.0 0.00 0.00 0.00 48 1007.6
20260509215041 75 38 0.0 3.0 0.00 0.00 0.00 47 1007.6
20260509214933 75 75 0.0 3.0 0.00 0.00 0.00 50 1007.6
20260509214839 75 82 0.0 3.0 0.00 0.00 0.00 47 1007.6
20260509214728 75 49 0.0 3.0 0.00 0.00 0.00 47 1007.5
20260509214641 76 313 0.0 3.0 0.00 0.00 0.00 47 1007.6
20260509214604 75 313 0.0 3.0 0.00 0.00 0.00 47 1007.3
20260509214546 76 340 0.0 0.0 0.00 0.00 0.00 47 1007.6
20260509214411 76 46 0.0 0.0 0.00 0.00 0.00 48 1007.6
20260509214324 76 47 0.0 0.0 0.00 0.00 0.00 47 1007.6
20260509214230 76 303 0.0 0.0 0.00 0.00 0.00 49 1007.6
20260509214120 76 326 0.0 0.0 0.00 0.00 0.00 50 1007.7
20260509214020 76 360 0.0 0.0 0.00 0.00 0.00 52 1007.7
20260509213927 75 5 0.0 0.0 0.00 0.00 0.00 47 1007.6
20260509213813 75 26 0.0 0.0 0.00 0.00 0.00 48 1007.6
20260509213726 75 52 0.0 0.0 0.00 0.00 0.00 49 1007.6
20260509213617 75 25 0.0 0.0 0.00 0.00 0.00 47 1007.6
20260509213551 75 61 0.0 3.0 0.00 0.00 0.00 47 1007.6
20260509213449 75 40 0.0 3.0 0.00 0.00 0.00 48 1007.6
20260509213316 75 55 0.0 6.0 0.00 0.00 0.00 48 1007.6
20260509213229 75 34 0.0 6.0 0.00 0.00 0.00 50 1007.6
20260509213131 75 19 0.0 6.0 0.00 0.00 0.00 48 1007.5
20260509213045 75 92 0.0 6.0 0.00 0.00 0.00 47 1007.5
20260509212911 75 63 0.0 6.0 0.00 0.00 0.00 46 1007.5
20260509212813 75 17 0.0 6.0 0.00 0.00 0.00 46 1007.5
20260509212720 75 89 0.0 6.0 0.00 0.00 0.00 47 1007.5
20260509212633 75 22 1.0 6.0 0.00 0.00 0.00 48 1007.5
20260509212520 75 175 1.0 6.0 0.00 0.00 0.00 46 1007.4
20260509212426 75 15 0.0 6.0 0.00 0.00 0.00 50 1007.4
20260509212312 75 216 0.0 6.0 0.00 0.00 0.00 47 1007.5
20260509212222 75 122 0.0 6.0 0.00 0.00 0.00 47 1007.5
20260509212135 75 133 0.0 7.0 0.00 0.00 0.00 47 1007.5
20260509212015 75 11 0.0 7.0 0.00 0.00 0.00 47 1007.5
20260509211928 76 30 0.0 7.0 0.00 0.00 0.00 48 1007.5
20260509211815 76 132 0.0 7.0 0.00 0.00 0.00 46 1007.5
20260509211722 76 75 0.0 7.0 0.00 0.00 0.00 46 1007.5
20260509211612 76 30 0.0 7.0 0.00 0.00 0.00 45 1007.4
20260509211548 75 24 0.0 7.0 0.00 0.00 0.00 45 1007.1
20260509211518 76 21 0.0 7.0 0.00 0.00 0.00 45 1007.4
20260509211431 76 360 0.0 7.0 0.00 0.00 0.00 46 1007.4
20260509211311 76 119 0.0 4.0 0.00 0.00 0.00 45 1007.5
20260509211224 76 26 1.0 4.0 0.00 0.00 0.00 45 1007.5
20260509211114 77 119 1.0 4.0 0.00 0.00 0.00 44 1007.5
20260509211021 77 84 0.0 1.0 0.00 0.00 0.00 45 1007.5
20260509210920 77 90 0.0 1.0 0.00 0.00 0.00 43 1007.4
20260509210830 77 84 0.0 1.0 0.00 0.00 0.00 45 1007.4
20260509210736 77 29 0.0 1.0 0.00 0.00 0.00 44 1007.5
20260509210625 77 330 0.0 1.0 0.00 0.00 0.00 44 1007.5
20260509210515 78 15 0.0 1.0 0.00 0.00 0.00 46 1007.5
20260509210442 78 66 0.0 4.0 0.00 0.00 0.00 45 1007.5
20260509210334 78 11 0.0 4.0 0.00 0.00 0.00 44 1007.4
20260509210214 78 317 0.0 4.0 0.00 0.00 0.00 43 1007.4
20260509210126 78 329 0.0 4.0 0.00 0.00 0.00 43 1007.4
20260509210046 78 297 0.0 11.0 0.00 0.00 0.00 43 1007.0
20260509210011 78 326 0.0 11.0 0.00 0.00 0.00 46 1007.3
20260509205944 78 298 0.0 11.0 0.00 0.00 0.00 44 1007.3
20260509205827 78 311 0.0 11.0 0.00 0.00 0.00 46 1007.3
20260509205710 78 303 0.0 11.0 0.00 0.00 0.00 44 1007.2
20260509205643 78 295 0.0 11.0 0.00 0.00 0.00 44 1007.2
20260509205509 78 300 0.0 11.0 0.00 0.00 0.00 45 1007.3
20260509205414 78 311 1.0 11.0 0.00 0.00 0.00 44 1007.3
20260509205346 78 19 1.0 11.0 0.00 0.00 0.00 44 1007.3
20260509205226 78 275 1.0 11.0 0.00 0.00 0.00 47 1007.3
20260509205143 78 23 0.0 0.0 0.00 0.00 0.00 45 1007.3
20260509205048 78 74 0.0 0.0 0.00 0.00 0.00 45 1007.3
20260509205000 78 286 0.0 0.0 0.00 0.00 0.00 45 1007.3
20260509204821 78 336 0.0 0.0 0.00 0.00 0.00 43 1007.3
20260509204722 78 328 0.0 0.0 0.00 0.00 0.00 44 1007.4
20260509204629 78 44 0.0 2.0 0.00 0.00 0.00 45 1007.3
20260509204534 77 28 0.0 5.0 0.00 0.00 0.00 44 1007.0
20260509204514 78 28 0.0 5.0 0.00 0.00 0.00 44 1007.3
20260509204431 78 292 0.0 5.0 0.00 0.00 0.00 44 1007.3
20260509204316 77 296 0.0 5.0 0.00 0.00 0.00 44 1007.2
20260509204222 77 115 0.0 5.0 0.00 0.00 0.00 44 1007.2
20260509204128 77 58 0.0 5.0 0.00 0.00 0.00 45 1007.2
20260509204015 77 5 0.0 5.0 0.00 0.00 0.00 46 1007.3
20260509203926 77 30 0.0 7.0 0.00 0.00 0.00 46 1007.3
20260509203811 77 305 0.0 7.0 0.00 0.00 0.00 45 1007.2
20260509203724 77 15 0.0 7.0 0.00 0.00 0.00 44 1007.2
20260509203611 77 36 0.0 7.0 0.00 0.00 0.00 45 1007.3
20260509203537 77 73 1.0 7.0 0.00 0.00 0.00 44 1007.3
20260509203449 77 65 1.0 7.0 0.00 0.00 0.00 44 1007.1
20260509203318 77 107 0.0 7.0 0.00 0.00 0.00 44 1007.2
20260509203224 77 71 0.0 7.0 0.00 0.00 0.00 44 1007.2
20260509203146 77 16 0.0 7.0 0.00 0.00 0.00 44 1006.9
20260509203138 77 24 1.0 7.0 0.00 0.00 0.00 44 1007.2
20260509203022 77 240 1.0 7.0 0.00 0.00 0.00 45 1007.2